FW4143 Weather Reports


time (UTC)temp
F
wind
direction
speed
knots
gust
knots
rain 1hr
in
rain 24hr
in
rain mn
in
humidity
%
barometer
mb
20260901060404 84 40 2.6 7.8 0.00 0.00 0.00 1 1016.1
20260901060304 84 40 3.5 10.4 0.00 0.00 0.00 1 1016.1
20260901060204 84 40 3.5 10.4 0.00 0.00 0.00 1 1016.1
20260901060104 84 40 3.5 10.4 0.00 0.00 0.00 1 1016.2
20260901060004 84 40 3.5 10.4 0.00 0.00 0.00 1 1016.1
20260901055904 84 40 3.5 10.4 0.00 0.00 0.00 1 1016.1
20260901055804 84 42 4.3 10.4 0.00 0.00 0.00 1 1016.1
20260901055704 84 42 4.3 10.4 0.00 0.00 0.00 1 1016.2
20260901055604 84 41 4.3 10.4 0.00 0.00 0.00 1 1016.1
20260901055525 84 42 4.3 10.4 0.00 0.00 0.00 1 1016.1
20260901055425 84 42 4.3 10.4 0.00 0.00 0.00 1 1016.1
20260901055306 84 43 4.3 8.7 0.00 0.00 0.00 1 1016.1
20260901055204 84 43 4.3 8.7 0.00 0.00 0.00 1 1016.1
20260901055104 84 45 4.3 8.7 0.00 0.00 0.00 1 1016.1
20260901055004 84 45 4.3 8.7 0.00 0.00 0.00 1 1016.0
20260901054904 84 48 4.3 8.7 0.00 0.00 0.00 1 1016.1
20260901054804 84 48 3.5 8.7 0.00 0.00 0.00 1 1016.0
20260901054704 84 49 3.5 8.7 0.00 0.00 0.00 1 1016.0
20260901054625 84 50 3.5 8.7 0.00 0.00 0.00 1 1016.0
20260901054504 84 48 3.5 7.8 0.00 0.00 0.00 1 1016.1
20260901054404 84 44 2.6 7.8 0.00 0.00 0.00 1 1016.1
20260901054325 84 41 2.6 7.8 0.00 0.00 0.00 1 1016.1
20260901054204 84 31 2.6 6.1 0.00 0.00 0.00 1 1016.1
20260901054104 84 20 2.6 6.1 0.00 0.00 0.00 1 1016.1
20260901054004 84 10 2.6 6.1 0.00 0.00 0.00 1 1016.0
20260901053904 84 360 2.6 6.1 0.00 0.00 0.00 1 1016.0
20260901053804 84 360 2.6 6.1 0.00 0.00 0.00 1 1016.1
20260901053704 84 357 2.6 6.1 0.00 0.00 0.00 1 1016.0
20260901053604 84 353 2.6 6.1 0.00 0.00 0.00 1 1016.0
20260901053504 84 1 2.6 6.1 0.00 0.00 0.00 1 1016.0
20260901053404 84 360 2.6 6.1 0.00 0.00 0.00 1 1016.1
20260901053304 84 356 2.6 6.1 0.00 0.00 0.00 1 1016.1
20260901053204 84 354 2.6 6.1 0.00 0.00 0.00 1 1016.0
20260901053125 84 355 2.6 6.1 0.00 0.00 0.00 1 1016.0
20260901053004 84 352 2.6 6.1 0.00 0.00 0.00 1 1016.0
20260901052904 84 346 1.7 6.1 0.00 0.00 0.00 1 1016.0
20260901052804 84 345 1.7 6.1 0.00 0.00 0.00 1 1016.0
20260901052704 84 338 1.7 6.1 0.00 0.00 0.00 1 1016.0
20260901052604 84 331 1.7 6.1 0.00 0.00 0.00 1 1016.0
20260901052504 85 317 1.7 6.1 0.00 0.00 0.00 1 1016.0
20260901052425 85 319 1.7 6.1 0.00 0.00 0.00 2 1016.0
20260901052307 85 325 1.7 6.1 0.00 0.00 0.00 3 1016.0
20260901052204 85 331 1.7 6.1 0.00 0.00 0.00 3 1016.1
20260901052125 85 334 2.6 6.1 0.00 0.00 0.00 3 1016.1
20260901052004 85 338 2.6 6.1 0.00 0.00 0.00 4 1016.1
20260901051904 85 344 2.6 6.1 0.00 0.00 0.00 5 1016.0
20260901051804 85 343 2.6 7.0 0.00 0.00 0.00 5 1016.0
20260901051705 85 345 2.6 7.0 0.00 0.00 0.00 6 1016.0
20260901051604 85 351 2.6 7.0 0.00 0.00 0.00 6 1016.0
20260901051525 85 356 2.6 7.0 0.00 0.00 0.00 7 1015.9
20260901051404 85 5 2.6 7.0 0.00 0.00 0.00 7 1015.9
20260901051304 85 8 2.6 7.0 0.00 0.00 0.00 8 1015.9
20260901051204 85 9 2.6 7.0 0.00 0.00 0.00 8 1015.8
20260901051104 85 9 2.6 7.0 0.00 0.00 0.00 8 1015.8
20260901051004 85 12 2.6 7.0 0.00 0.00 0.00 9 1015.8
20260901050925 85 13 2.6 7.0 0.00 0.00 0.00 9 1015.9
20260901050804 85 10 2.6 6.1 0.00 0.00 0.00 10 1015.8
20260901050704 85 6 2.6 6.1 0.00 0.00 0.00 10 1015.8
20260901050604 85 358 2.6 7.0 0.00 0.00 0.00 11 1015.8
20260901050504 85 353 2.6 7.8 0.00 0.00 0.00 11 1015.7
20260901050425 85 349 2.6 7.8 0.00 0.00 0.00 11 1015.8
20260901050304 85 354 2.6 7.8 0.00 0.00 0.00 12 1015.7
20260901050204 85 1 2.6 7.8 0.00 0.00 0.00 13 1015.7
20260901050104 85 7 2.6 7.8 0.00 0.00 0.00 13 1015.7
20260901050004 85 5 3.5 7.8 0.00 0.00 0.00 13 1015.7
20260901045925 85 9 3.5 9.6 0.00 0.00 0.00 13 1015.7
20260901045804 85 14 3.5 9.6 0.00 0.00 0.00 14 1015.7
20260901045704 85 19 3.5 9.6 0.00 0.00 0.00 14 1015.7
20260901045604 85 25 3.5 9.6 0.00 0.00 0.00 14 1015.7
20260901045504 85 31 2.6 9.6 0.00 0.00 0.00 14 1015.7
20260901045404 85 34 2.6 9.6 0.00 0.00 0.00 14 1015.7
20260901045306 85 31 2.6 9.6 0.00 0.00 0.00 15 1015.7
20260901045204 85 27 2.6 9.6 0.00 0.00 0.00 15 1015.6
20260901045104 85 19 2.6 9.6 0.00 0.00 0.00 15 1015.6
20260901045004 86 17 2.6 9.6 0.00 0.00 0.00 15 1015.6
20260901044904 86 15 2.6 6.1 0.00 0.00 0.00 16 1015.6
20260901044804 86 21 2.6 6.1 0.00 0.00 0.00 17 1015.6
20260901044704 86 18 2.6 6.1 0.00 0.00 0.00 17 1015.5
20260901044604 86 11 2.6 6.1 0.00 0.00 0.00 17 1015.5
20260901044506 86 7 2.6 6.1 0.00 0.00 0.00 18 1015.6
20260901044404 86 1 2.6 6.1 0.00 0.00 0.00 18 1015.5
20260901044304 86 353 2.6 6.1 0.00 0.00 0.00 19 1015.5
20260901044204 86 347 2.6 6.1 0.00 0.00 0.00 19 1015.6
20260901044104 86 348 2.6 6.1 0.00 0.00 0.00 20 1015.5
20260901044004 86 356 2.6 6.1 0.00 0.00 0.00 20 1015.5
20260901043904 86 357 2.6 6.1 0.00 0.00 0.00 20 1015.5
20260901043804 86 351 2.6 6.1 0.00 0.00 0.00 21 1015.5
20260901043704 86 347 2.6 6.1 0.00 0.00 0.00 21 1015.5
20260901043604 86 348 2.6 6.1 0.00 0.00 0.00 21 1015.5
20260901043525 86 347 2.6 6.1 0.00 0.00 0.00 21 1015.6
20260901043404 86 341 2.6 6.1 0.00 0.00 0.00 22 1015.5
20260901043304 86 342 2.6 6.1 0.00 0.00 0.00 22 1015.5
20260901043204 86 343 2.6 6.1 0.00 0.00 0.00 22 1015.6
20260901043125 86 344 2.6 6.1 0.00 0.00 0.00 23 1015.6
20260901043004 86 339 2.6 6.1 0.00 0.00 0.00 23 1015.6
20260901042904 86 332 2.6 6.1 0.00 0.00 0.00 23 1015.6
20260901042804 86 330 2.6 6.1 0.00 0.00 0.00 24 1015.5
20260901042704 86 329 3.5 6.1 0.00 0.00 0.00 24 1015.5
20260901042604 86 329 3.5 6.1 0.00 0.00 0.00 24 1015.5
20260901042504 86 331 3.5 6.1 0.00 0.00 0.00 24 1015.5
20260901042404 86 331 3.5 7.0 0.00 0.00 0.00 25 1015.5
20260901042306 86 328 3.5 9.6 0.00 0.00 0.00 25 1015.5
20260901042204 86 325 3.5 9.6 0.00 0.00 0.00 25 1015.5
20260901042125 86 327 3.5 9.6 0.00 0.00 0.00 25 1015.5
20260901042004 86 321 3.5 9.6 0.00 0.00 0.00 26 1015.4
20260901041904 86 323 3.5 9.6 0.00 0.00 0.00 26 1015.4
20260901041804 86 323 3.5 9.6 0.00 0.00 0.00 27 1015.4
20260901041704 86 322 3.5 9.6 0.00 0.00 0.00 27 1015.3
20260901041625 86 323 3.5 9.6 0.00 0.00 0.00 27 1015.3
20260901041504 86 316 3.5 9.6 0.00 0.00 0.00 27 1015.4
20260901041404 86 315 3.5 9.6 0.00 0.00 0.00 28 1015.4
20260901041304 86 315 2.6 7.0 0.00 0.00 0.00 28 1015.4
20260901041206 86 314 3.5 8.7 0.00 0.00 0.00 28 1015.4
20260901041104 86 310 3.5 8.7 0.00 0.00 0.00 29 1015.4
20260901041025 86 310 3.5 8.7 0.00 0.00 0.00 29 1015.4
20260901040904 86 309 3.5 8.7 0.00 0.00 0.00 29 1015.4
20260901040804 86 304 3.5 8.7 0.00 0.00 0.00 29 1015.4
20260901040704 86 303 3.5 8.7 0.00 0.00 0.00 30 1015.4
20260901040604 86 299 3.5 8.7 0.00 0.00 0.00 30 1015.4
20260901040525 86 300 3.5 8.7 0.00 0.00 0.00 31 1015.4
20260901040404 87 299 3.5 8.7 0.00 0.00 0.00 31 1015.5
20260901040304 87 302 3.5 8.7 0.00 0.00 0.00 31 1015.4
20260901040204 87 306 3.5 7.8 0.00 0.00 0.00 32 1015.5
20260901040125 87 308 3.5 7.8 0.00 0.00 0.00 32 1015.4
20260901040004 87 311 3.5 7.8 0.00 0.00 0.00 32 1015.5
20260901035904 87 308 3.5 7.0 0.00 0.00 0.00 33 1015.5
20260901035804 87 311 3.5 7.0 0.00 0.00 0.00 33 1015.4
20260901035704 87 312 3.5 7.0 0.00 0.00 0.00 33 1015.5
20260901035604 87 316 3.5 7.0 0.00 0.00 0.00 33 1015.5
20260901035504 87 316 3.5 7.0 0.00 0.00 0.00 34 1015.5
20260901035425 87 317 3.5 7.0 0.00 0.00 0.00 34 1015.4
20260901035306 87 318 3.5 7.0 0.00 0.00 0.00 35 1015.4
20260901035204 87 316 3.5 7.0 0.00 0.00 0.00 35 1015.4
20260901035104 87 314 3.5 7.0 0.00 0.00 0.00 35 1015.4
20260901035004 87 319 3.5 7.0 0.00 0.00 0.00 36 1015.4
20260901034904 87 320 3.5 7.0 0.00 0.00 0.00 36 1015.3
20260901034804 87 319 3.5 7.0 0.00 0.00 0.00 36 1015.4
20260901034704 87 319 3.5 7.0 0.00 0.00 0.00 37 1015.4
20260901034604 87 318 3.5 7.0 0.00 0.00 0.00 37 1015.4
20260901034525 87 319 3.5 7.8 0.00 0.00 0.00 37 1015.4
20260901034404 87 322 3.5 7.8 0.00 0.00 0.00 38 1015.4
20260901034325 87 320 3.5 7.8 0.00 0.00 0.00 38 1015.3
20260901034205 87 322 3.5 7.8 0.00 0.00 0.00 38 1015.4
20260901034104 87 322 3.5 7.8 0.00 0.00 0.00 39 1015.4
20260901034004 87 320 2.6 7.8 0.00 0.00 0.00 39 1015.4
20260901033904 87 322 2.6 7.8 0.00 0.00 0.00 39 1015.4
20260901033804 87 324 2.6 7.8 0.00 0.00 0.00 40 1015.4
20260901033704 87 323 2.6 7.8 0.00 0.00 0.00 40 1015.4
20260901033604 87 323 2.6 7.8 0.00 0.00 0.00 40 1015.4
20260901033525 87 323 2.6 7.8 0.00 0.00 0.00 40 1015.4
20260901033404 87 320 2.6 7.8 0.00 0.00 0.00 41 1015.5
20260901033304 87 321 2.6 7.8 0.00 0.00 0.00 41 1015.4
20260901033204 87 320 2.6 7.8 0.00 0.00 0.00 41 1015.4
20260901033104 87 318 2.6 7.8 0.00 0.00 0.00 42 1015.4
20260901033025 87 319 3.5 7.8 0.00 0.00 0.00 42 1015.4
20260901032925 88 316 3.5 7.8 0.00 0.00 0.00 42 1015.4
20260901032804 88 309 2.6 7.8 0.00 0.00 0.00 42 1015.4
20260901032704 88 309 3.5 7.8 0.00 0.00 0.00 42 1015.4
20260901032604 88 313 3.5 7.8 0.00 0.00 0.00 43 1015.4
20260901032504 88 311 3.5 7.8 0.00 0.00 0.00 43 1015.4
20260901032404 88 314 3.5 8.7 0.00 0.00 0.00 43 1015.4
20260901032325 88 314 3.5 8.7 0.00 0.00 0.00 43 1015.4
20260901032204 88 309 3.5 8.7 0.00 0.00 0.00 44 1015.4
20260901032104 88 310 3.5 8.7 0.00 0.00 0.00 44 1015.4
20260901032004 88 312 2.6 8.7 0.00 0.00 0.00 44 1015.3
20260901031925 88 318 3.5 8.7 0.00 0.00 0.00 44 1015.3
20260901031804 88 325 3.5 8.7 0.00 0.00 0.00 45 1015.3
20260901031725 88 328 2.6 8.7 0.00 0.00 0.00 45 1015.3
20260901031604 88 331 2.6 8.7 0.00 0.00 0.00 45 1015.3
20260901031504 88 332 2.6 8.7 0.00 0.00 0.00 45 1015.3
20260901031425 88 327 2.6 7.8 0.00 0.00 0.00 46 1015.3
20260901031304 88 334 2.6 7.0 0.00 0.00 0.00 46 1015.3
20260901031204 88 336 2.6 7.0 0.00 0.00 0.00 46 1015.2
20260901031104 88 335 2.6 7.0 0.00 0.00 0.00 46 1015.2
20260901031004 88 330 2.6 7.0 0.00 0.00 0.00 46 1015.3
20260901030904 88 326 2.6 7.0 0.00 0.00 0.00 47 1015.2
20260901030804 88 323 2.6 7.0 0.00 0.00 0.00 47 1015.2
20260901030725 88 319 2.6 7.0 0.00 0.00 0.00 47 1015.2
20260901030604 88 315 2.6 7.0 0.00 0.00 0.00 47 1015.1
20260901030506 88 317 2.6 7.0 0.00 0.00 0.00 47 1015.1
20260901030404 88 319 3.5 7.0 0.00 0.00 0.00 47 1015.1
20260901030304 88 316 3.5 7.0 0.00 0.00 0.00 48 1015.0
20260901030204 88 312 3.5 7.0 0.00 0.00 0.00 48 1015.1
20260901030125 88 311 3.5 7.8 0.00 0.00 0.00 48 1015.1
20260901030004 88 312 3.5 7.8 0.00 0.00 0.00 48 1015.0
20260901025904 88 309 3.5 7.8 0.00 0.00 0.00 48 1015.0
20260901025804 88 307 3.5 7.8 0.00 0.00 0.00 48 1014.9
20260901025704 88 305 2.6 7.8 0.00 0.00 0.00 48 1015.0
20260901025604 88 303 2.6 7.8 0.00 0.00 0.00 48 1015.0
20260901025504 88 303 2.6 7.8 0.00 0.00 0.00 48 1014.9
20260901025404 88 302 2.6 7.8 0.00 0.00 0.00 48 1014.9
20260901025306 88 303 2.6 7.8 0.00 0.00 0.00 48 1014.9
20260901025204 88 306 2.6 7.8 0.00 0.00 0.00 48 1014.9
20260901025104 88 307 2.6 7.0 0.00 0.00 0.00 48 1014.9
20260901025004 88 303 1.7 7.0 0.00 0.00 0.00 48 1014.9
20260901024904 88 301 1.7 7.0 0.00 0.00 0.00 48 1014.9
20260901024825 88 300 1.7 7.0 0.00 0.00 0.00 48 1014.9
20260901024725 88 298 1.7 7.0 0.00 0.00 0.00 48 1014.9
20260901024604 88 296 2.6 7.0 0.00 0.00 0.00 48 1014.9
20260901024525 88 294 1.7 5.2 0.00 0.00 0.00 48 1014.8
20260901024404 88 286 1.7 5.2 0.00 0.00 0.00 48 1014.8
20260901024304 88 283 1.7 5.2 0.00 0.00 0.00 48 1014.7
20260901024204 88 277 1.7 5.2 0.00 0.00 0.00 47 1014.7
20260901024128 88 275 1.7 4.3 0.00 0.00 0.00 47 1014.7
20260901024004 88 270 1.7 4.3 0.00 0.00 0.00 47 1014.7
20260901023907 88 268 1.7 4.3 0.00 0.00 0.00 47 1014.7
20260901023804 88 266 1.7 4.3 0.00 0.00 0.00 47 1014.7
20260901023704 88 263 1.7 4.3 0.00 0.00 0.00 47 1014.6
20260901023604 88 261 1.7 4.3 0.00 0.00 0.00 47 1014.6
20260901023525 88 260 1.7 4.3 0.00 0.00 0.00 47 1014.6
20260901023404 88 257 1.7 4.3 0.00 0.00 0.00 46 1014.6
20260901023304 88 255 1.7 4.3 0.00 0.00 0.00 46 1014.5
20260901023204 88 253 1.7 4.3 0.00 0.00 0.00 46 1014.5
20260901023104 88 251 1.7 4.3 0.00 0.00 0.00 46 1014.5
20260901023004 88 250 1.7 4.3 0.00 0.00 0.00 46 1014.5
20260901022904 89 249 1.7 4.3 0.00 0.00 0.00 46 1014.5
20260901022825 89 249 1.7 4.3 0.00 0.00 0.00 46 1014.4
20260901022725 89 249 1.7 4.3 0.00 0.00 0.00 45 1014.4
20260901022604 89 249 1.7 4.3 0.00 0.00 0.00 45 1014.4
20260901022504 89 249 1.7 4.3 0.00 0.00 0.00 45 1014.3
20260901022404 89 248 1.7 3.5 0.00 0.00 0.00 45 1014.3
20260901022325 89 248 0.9 3.5 0.00 0.00 0.00 45 1014.3
20260901022206 89 248 0.9 3.5 0.00 0.00 0.00 45 1014.3
20260901022104 89 248 0.9 3.5 0.00 0.00 0.00 44 1014.3
20260901022004 89 248 0.9 3.5 0.00 0.00 0.00 44 1014.3
20260901021904 89 248 0.9 3.5 0.00 0.00 0.00 44 1014.2
20260901021804 89 248 0.9 3.5 0.00 0.00 0.00 44 1014.2
20260901021725 89 248 0.9 3.5 0.00 0.00 0.00 44 1014.2
20260901021604 89 248 0.9 3.5 0.00 0.00 0.00 44 1014.2
20260901021504 89 248 0.9 3.5 0.00 0.00 0.00 44 1014.3
20260901021404 89 248 0.9 3.5 0.00 0.00 0.00 44 1014.2
20260901021304 89 247 0.9 3.5 0.00 0.00 0.00 44 1014.2
20260901021204 89 247 1.7 3.5 0.00 0.00 0.00 44 1014.2
20260901021104 89 247 1.7 3.5 0.00 0.00 0.00 44 1014.2
20260901021004 89 247 0.9 3.5 0.00 0.00 0.00 44 1014.1
20260901020904 90 246 0.9 3.5 0.00 0.00 0.00 44 1014.1
20260901020804 90 246 0.9 3.5 0.00 0.00 0.00 44 1014.1
20260901020704 90 246 0.9 3.5 0.00 0.00 0.00 43 1014.1
20260901020605 90 245 0.9 3.5 0.00 0.00 0.00 43 1014.1
20260901020504 90 245 0.9 2.6 0.00 0.00 0.00 43 1014.0
20260901020404 90 245 0.9 3.5 0.00 0.00 0.00 43 1014.1
20260901020304 90 245 0.9 3.5 0.00 0.00 0.00 43 1014.1
20260901020204 90 245 0.9 3.5 0.00 0.00 0.00 43 1014.0
20260901020104 90 245 0.9 3.5 0.00 0.00 0.00 43 1014.0
20260901020004 90 245 1.7 3.5 0.00 0.00 0.00 43 1014.0
20260901015904 90 245 0.9 3.5 0.00 0.00 0.00 43 1014.0
20260901015804 90 245 0.9 3.5 0.00 0.00 0.00 43 1013.9
20260901015704 90 245 0.9 3.5 0.00 0.00 0.00 43 1013.9
20260901015604 90 245 0.9 3.5 0.00 0.00 0.00 43 1013.9
20260901015504 90 245 0.9 3.5 0.00 0.00 0.00 43 1013.9
20260901015404 90 245 0.9 2.6 0.00 0.00 0.00 43 1013.9
20260901015305 90 246 0.9 2.6 0.00 0.00 0.00 42 1013.9
20260901015204 90 246 0.9 2.6 0.00 0.00 0.00 42 1013.9
20260901015104 90 246 0.9 2.6 0.00 0.00 0.00 42 1013.9
20260901015004 90 246 0.9 2.6 0.00 0.00 0.00 42 1013.9
20260901014904 90 246 0.9 2.6 0.00 0.00 0.00 42 1013.8
20260901014804 91 246 1.7 3.5 0.00 0.00 0.00 42 1013.8
20260901014704 91 246 1.7 4.3 0.00 0.00 0.00 42 1013.8
20260901014625 91 246 1.7 4.3 0.00 0.00 0.00 42 1013.8
20260901014525 91 246 1.7 4.3 0.00 0.00 0.00 42 1013.8
20260901014404 91 245 1.7 4.3 0.00 0.00 0.00 42 1013.8
20260901014304 91 246 1.7 4.3 0.00 0.00 0.00 42 1013.8
20260901014225 91 246 1.7 4.3 0.00 0.00 0.00 42 1013.8
20260901014104 91 246 1.7 4.3 0.00 0.00 0.00 41 1013.8
20260901014004 91 246 1.7 4.3 0.00 0.00 0.00 41 1013.8
20260901013904 91 246 1.7 4.3 0.00 0.00 0.00 41 1013.8
20260901013804 91 246 1.7 4.3 0.00 0.00 0.00 41 1013.9
20260901013725 91 246 1.7 4.3 0.00 0.00 0.00 41 1013.8
20260901013625 91 246 1.7 4.3 0.00 0.00 0.00 41 1013.8
20260901013504 91 246 0.9 4.3 0.00 0.00 0.00 41 1013.8
20260901013404 92 246 0.9 4.3 0.00 0.00 0.00 41 1013.9
20260901013304 92 246 0.9 4.3 0.00 0.00 0.00 41 1013.8
20260901013204 92 246 0.9 3.5 0.00 0.00 0.00 41 1013.8
20260901013104 92 246 0.9 3.5 0.00 0.00 0.00 41 1013.8
20260901013004 92 246 1.7 4.3 0.00 0.00 0.00 41 1013.8
20260901012904 92 246 1.7 4.3 0.00 0.00 0.00 41 1013.7
20260901012825 92 246 1.7 4.3 0.00 0.00 0.00 41 1013.7
20260901012725 92 246 1.7 4.3 0.00 0.00 0.00 41 1013.7
20260901012604 92 246 1.7 4.3 0.00 0.00 0.00 40 1013.8
20260901012525 92 246 1.7 4.3 0.00 0.00 0.00 40 1013.7
20260901012404 92 245 1.7 4.3 0.00 0.00 0.00 40 1013.6
20260901012306 92 245 1.7 4.3 0.00 0.00 0.00 40 1013.6
20260901012204 92 245 1.7 4.3 0.00 0.00 0.00 40 1013.7
20260901012104 92 245 1.7 4.3 0.00 0.00 0.00 40 1013.7
20260901012004 92 245 1.7 3.5 0.00 0.00 0.00 40 1013.6
20260901011904 92 245 1.7 3.5 0.00 0.00 0.00 40 1013.6
20260901011804 92 245 1.7 3.5 0.00 0.00 0.00 40 1013.6
20260901011704 92 245 0.9 3.5 0.00 0.00 0.00 40 1013.5
20260901011604 92 245 0.9 3.5 0.00 0.00 0.00 40 1013.6
20260901011525 92 245 0.9 2.6 0.00 0.00 0.00 40 1013.6
20260901011404 92 245 0.9 2.6 0.00 0.00 0.00 40 1013.5
20260901011304 93 245 0.9 2.6 0.00 0.00 0.00 40 1013.5
20260901011204 93 245 0.9 2.6 0.00 0.00 0.00 40 1013.5
20260901011125 93 245 1.7 2.6 0.00 0.00 0.00 40 1013.5
20260901011004 93 246 1.7 3.5 0.00 0.00 0.00 40 1013.5
20260901010904 93 246 1.7 3.5 0.00 0.00 0.00 40 1013.5
20260901010804 93 246 1.7 3.5 0.00 0.00 0.00 40 1013.5
20260901010704 93 246 1.7 3.5 0.00 0.00 0.00 40 1013.5
20260901010604 93 246 1.7 4.3 0.00 0.00 0.00 40 1013.5
20260901010504 93 247 1.7 4.3 0.00 0.00 0.00 40 1013.4
20260901010404 93 249 1.7 4.3 0.00 0.00 0.00 40 1013.5
20260901010304 93 253 1.7 5.2 0.00 0.00 0.00 39 1013.4
20260901010204 93 260 1.7 5.2 0.00 0.00 0.00 40 1013.4
20260901010104 93 266 1.7 5.2 0.00 0.00 0.00 39 1013.4
20260901010025 93 270 1.7 5.2 0.00 0.00 0.00 40 1013.4
20260901005904 94 281 1.7 5.2 0.00 0.00 0.00 39 1013.4
20260901005804 94 285 1.7 5.2 0.00 0.00 0.00 39 1013.5
20260901005704 94 287 1.7 5.2 0.00 0.00 0.00 39 1013.5
20260901005604 94 290 1.7 5.2 0.00 0.00 0.00 39 1013.4
20260901005504 94 290 1.7 5.2 0.00 0.00 0.00 39 1013.4
20260901005404 94 287 1.7 5.2 0.00 0.00 0.00 39 1013.5
20260901005306 94 284 1.7 4.3 0.00 0.00 0.00 39 1013.5
20260901005225 94 279 1.7 4.3 0.00 0.00 0.00 39 1013.5
20260901005104 94 270 1.7 4.3 0.00 0.00 0.00 39 1013.4
20260901005004 94 264 1.7 4.3 0.00 0.00 0.00 39 1013.4
20260901004904 94 257 1.7 4.3 0.00 0.00 0.00 39 1013.4
20260901004804 94 256 1.7 4.3 0.00 0.00 0.00 39 1013.4
20260901004704 94 256 1.7 4.3 0.00 0.00 0.00 39 1013.4
20260901004604 94 255 1.7 4.3 0.00 0.00 0.00 39 1013.4
20260901004504 95 255 1.7 4.3 0.00 0.00 0.00 39 1013.4
20260901004404 95 255 1.7 4.3 0.00 0.00 0.00 39 1013.4
20260901004304 95 256 1.7 4.3 0.00 0.00 0.00 38 1013.4
20260901004204 95 255 1.7 4.3 0.00 0.00 0.00 38 1013.4
20260901004104 95 255 1.7 4.3 0.00 0.00 0.00 38 1013.4
20260901004025 95 255 1.7 5.2 0.00 0.00 0.00 38 1013.5
20260901003904 95 255 2.6 6.1 0.00 0.00 0.00 38 1013.4
20260901003825 95 254 2.6 6.1 0.00 0.00 0.00 38 1013.4
20260901003704 95 255 2.6 6.1 0.00 0.00 0.00 38 1013.4
20260901003604 95 254 2.6 6.1 0.00 0.00 0.00 38 1013.4
20260901003525 95 255 2.6 6.1 0.00 0.00 0.00 38 1013.4
20260901003404 95 255 3.5 6.1 0.00 0.00 0.00 38 1013.4
20260901003304 95 254 3.5 6.1 0.00 0.00 0.00 38 1013.4
20260901003204 95 256 3.5 7.0 0.00 0.00 0.00 38 1013.4
20260901003104 95 256 3.5 7.0 0.00 0.00 0.00 38 1013.4
20260901003004 95 257 3.5 7.0 0.00 0.00 0.00 38 1013.4
20260901002904 96 258 3.5 7.0 0.00 0.00 0.00 38 1013.5
20260901002804 96 260 2.6 7.0 0.00 0.00 0.00 38 1013.4
20260901002704 96 260 2.6 7.0 0.00 0.00 0.00 38 1013.4
20260901002604 96 262 2.6 7.0 0.00 0.00 0.00 37 1013.4
20260901002504 96 263 2.6 7.0 0.00 0.00 0.00 37 1013.4
20260901002404 96 265 1.7 7.0 0.00 0.00 0.00 37 1013.4
20260901002325 96 267 1.7 7.0 0.00 0.00 0.00 37 1013.4
20260901002204 96 268 1.7 4.3 0.00 0.00 0.00 37 1013.3
20260901002104 96 269 1.7 4.3 0.00 0.00 0.00 37 1013.4
20260901002004 96 271 1.7 3.5 0.00 0.00 0.00 37 1013.3
20260901001904 96 273 1.7 3.5 0.00 0.00 0.00 37 1013.3
20260901001825 96 273 1.7 3.5 0.00 0.00 0.00 37 1013.3
20260901001704 96 275 1.7 6.1 0.00 0.00 0.00 36 1013.3
20260901001604 96 278 1.7 6.1 0.00 0.00 0.00 37 1013.3
20260901001504 96 276 1.7 6.1 0.00 0.00 0.00 36 1013.4
20260901001404 96 273 1.7 6.1 0.00 0.00 0.00 36 1013.3
20260901001304 96 271 2.6 6.1 0.00 0.00 0.00 36 1013.3
20260901001204 96 268 2.6 6.1 0.00 0.00 0.00 36 1013.3
20260901001125 96 267 2.6 6.1 0.00 0.00 0.00 36 1013.3
20260901001004 97 263 2.6 6.1 0.00 0.00 0.00 36 1013.3
20260901000904 97 261 2.6 6.1 0.00 0.00 0.00 36 1013.3
20260901000804 97 259 2.6 6.1 0.00 0.00 0.00 35 1013.2
20260901000704 97 257 2.6 6.1 0.00 0.00 0.00 35 1013.3
20260901000604 97 251 1.7 4.3 0.00 0.00 0.00 35 1013.2
20260901000504 97 250 2.6 6.1 0.00 0.00 0.00 35 1013.3
20260901000425 97 249 2.6 6.1 0.00 0.00 0.00 35 1013.2
20260901000304 97 248 2.6 6.1 0.00 0.00 0.00 35 1013.3
20260901000204 97 248 2.6 6.1 0.00 0.00 0.00 35 1013.3
20260901000106 97 248 2.6 6.1 0.00 0.00 0.00 35 1013.2
20260901000004 97 251 2.6 6.1 0.00 0.00 0.00 36 1013.3
20260831235925 97 252 2.6 6.1 0.00 0.00 0.00 36 1013.2
20260831235804 97 262 2.6 7.0 0.00 0.00 0.00 36 1013.2
20260831235704 97 266 2.6 7.0 0.00 0.00 0.00 35 1013.3
20260831235604 97 270 2.6 7.0 0.00 0.00 0.00 35 1013.2
20260831235504 97 272 2.6 7.0 0.00 0.00 0.00 35 1013.3
20260831235404 97 273 2.6 7.0 0.00 0.00 0.00 35 1013.3
20260831235325 97 274 2.6 7.0 0.00 0.00 0.00 35 1013.3
20260831235204 97 275 2.6 7.0 0.00 0.00 0.00 35 1013.3
20260831235104 97 277 2.6 7.0 0.00 0.00 0.00 35 1013.3
20260831235025 97 274 2.6 7.0 0.00 0.00 0.00 35 1013.3
20260831234904 97 269 2.6 7.8 0.00 0.00 0.00 36 1013.3
20260831234804 97 264 2.6 7.8 0.00 0.00 0.00 35 1013.2
20260831234704 97 263 2.6 7.8 0.00 0.00 0.00 35 1013.3
20260831234604 97 263 2.6 7.8 0.00 0.00 0.00 36 1013.2
20260831234504 97 267 2.6 7.8 0.00 0.00 0.00 36 1013.3
20260831234425 97 270 2.6 7.8 0.00 0.00 0.00 36 1013.3
20260831234304 97 273 2.6 7.8 0.00 0.00 0.00 36 1013.3
20260831234204 97 273 2.6 7.8 0.00 0.00 0.00 36 1013.3
20260831234104 97 274 2.6 7.8 0.00 0.00 0.00 36 1013.3
20260831234004 97 278 2.6 7.8 0.00 0.00 0.00 36 1013.3
20260831233904 97 281 2.6 7.8 0.00 0.00 0.00 36 1013.3
20260831233804 97 282 2.6 7.8 0.00 0.00 0.00 36 1013.3
20260831233704 97 278 2.6 7.8 0.00 0.00 0.00 36 1013.2
20260831233604 97 275 2.6 7.8 0.00 0.00 0.00 36 1013.3
20260831233504 97 274 2.6 7.8 0.00 0.00 0.00 36 1013.2
20260831233406 97 272 2.6 7.8 0.00 0.00 0.00 36 1013.2
20260831233304 96 273 2.6 7.8 0.00 0.00 0.00 36 1013.2
20260831233204 97 275 2.6 7.8 0.00 0.00 0.00 36 1013.2
20260831233104 97 276 2.6 7.8 0.00 0.00 0.00 36 1013.2
20260831233004 97 272 2.6 6.1 0.00 0.00 0.00 36 1013.3
20260831232904 97 271 2.6 6.1 0.00 0.00 0.00 36 1013.2
20260831232825 97 271 2.6 6.1 0.00 0.00 0.00 36 1013.3
20260831232704 97 271 2.6 6.1 0.00 0.00 0.00 36 1013.3
20260831232604 97 270 2.6 6.1 0.00 0.00 0.00 36 1013.3
20260831232504 97 267 2.6 6.1 0.00 0.00 0.00 36 1013.3
20260831232404 97 266 2.6 6.1 0.00 0.00 0.00 36 1013.3
20260831232325 97 263 2.6 6.1 0.00 0.00 0.00 36 1013.3
20260831232204 97 259 2.6 6.1 0.00 0.00 0.00 36 1013.3
20260831232104 97 257 3.5 6.1 0.00 0.00 0.00 35 1013.3
20260831232004 97 256 3.5 6.1 0.00 0.00 0.00 35 1013.3
20260831231904 97 253 3.5 7.0 0.00 0.00 0.00 35 1013.3
20260831231804 98 253 3.5 7.0 0.00 0.00 0.00 35 1013.3
20260831231704 98 253 3.5 7.0 0.00 0.00 0.00 35 1013.3
20260831231625 98 253 3.5 7.0 0.00 0.00 0.00 35 1013.3
20260831231504 98 256 2.6 7.0 0.00 0.00 0.00 34 1013.3
20260831231404 98 257 2.6 7.0 0.00 0.00 0.00 34 1013.3
20260831231304 98 262 2.6 7.0 0.00 0.00 0.00 34 1013.3
20260831231204 98 268 2.6 7.0 0.00 0.00 0.00 35 1013.3
20260831231104 98 270 2.6 7.0 0.00 0.00 0.00 35 1013.3
20260831231004 98 271 3.5 9.6 0.00 0.00 0.00 35 1013.3
20260831230904 98 272 3.5 9.6 0.00 0.00 0.00 35 1013.3
20260831230804 98 272 3.5 9.6 0.00 0.00 0.00 35 1013.3
20260831230704 98 272 3.5 9.6 0.00 0.00 0.00 35 1013.4
20260831230604 98 270 4.3 11.3 0.00 0.00 0.00 35 1013.4
20260831230525 98 268 4.3 11.3 0.00 0.00 0.00 35 1013.3
20260831230404 98 266 4.3 11.3 0.00 0.00 0.00 35 1013.3
20260831230304 98 262 4.3 11.3 0.00 0.00 0.00 35 1013.4
20260831230204 98 259 3.5 11.3 0.00 0.00 0.00 35 1013.4
20260831230104 98 258 3.5 11.3 0.00 0.00 0.00 35 1013.4
20260831230025 98 257 3.5 11.3 0.00 0.00 0.00 35 1013.4
20260831225904 98 256 3.5 11.3 0.00 0.00 0.00 35 1013.4
20260831225825 98 255 2.6 11.3 0.00 0.00 0.00 35 1013.4
20260831225704 98 253 2.6 11.3 0.00 0.00 0.00 35 1013.4
20260831225604 98 252 2.6 5.2 0.00 0.00 0.00 35 1013.4
20260831225504 98 252 2.6 5.2 0.00 0.00 0.00 35 1013.4
20260831225404 98 253 2.6 5.2 0.00 0.00 0.00 35 1013.4
20260831225306 98 253 1.7 5.2 0.00 0.00 0.00 34 1013.4
20260831225204 98 253 2.6 5.2 0.00 0.00 0.00 34 1013.4
20260831225104 98 255 2.6 5.2 0.00 0.00 0.00 34 1013.4
20260831225004 98 259 2.6 7.0 0.00 0.00 0.00 34 1013.4
20260831224925 99 262 2.6 7.0 0.00 0.00 0.00 34 1013.5
20260831224804 99 265 2.6 7.0 0.00 0.00 0.00 34 1013.4
20260831224704 99 268 2.6 7.0 0.00 0.00 0.00 34 1013.4
20260831224604 99 270 2.6 7.0 0.00 0.00 0.00 35 1013.4
20260831224504 99 269 2.6 7.0 0.00 0.00 0.00 35 1013.4
20260831224425 98 270 2.6 7.0 0.00 0.00 0.00 35 1013.4
20260831224304 98 274 2.6 7.0 0.00 0.00 0.00 35 1013.4
20260831224204 98 277 2.6 7.0 0.00 0.00 0.00 35 1013.4
20260831224125 98 280 2.6 7.0 0.00 0.00 0.00 35 1013.4
20260831224004 99 286 2.6 6.1 0.00 0.00 0.00 35 1013.5
20260831223904 99 291 2.6 6.1 0.00 0.00 0.00 35 1013.4
20260831223804 99 308 2.6 6.1 0.00 0.00 0.00 35 1013.4
20260831223704 99 313 2.6 6.1 0.00 0.00 0.00 35 1013.4
20260831223604 99 318 2.6 7.0 0.00 0.00 0.00 35 1013.4
20260831223504 99 320 2.6 7.8 0.00 0.00 0.00 35 1013.4
20260831223404 99 313 2.6 7.8 0.00 0.00 0.00 35 1013.5
20260831223325 99 305 3.5 7.8 0.00 0.00 0.00 35 1013.5
20260831223204 99 293 3.5 7.8 0.00 0.00 0.00 36 1013.5
20260831223104 98 285 3.5 7.8 0.00 0.00 0.00 35 1013.5
20260831223004 98 273 3.5 7.8 0.00 0.00 0.00 35 1013.5
20260831222904 98 264 3.5 7.8 0.00 0.00 0.00 35 1013.5
20260831222804 98 250 3.5 7.8 0.00 0.00 0.00 35 1013.6
20260831222704 98 245 3.5 7.8 0.00 0.00 0.00 36 1013.5
20260831222604 98 239 3.5 7.8 0.00 0.00 0.00 36 1013.6
20260831222504 98 239 4.3 7.0 0.00 0.00 0.00 35 1013.6
20260831222404 98 239 4.3 8.7 0.00 0.00 0.00 35 1013.6
20260831222306 98 239 4.3 8.7 0.00 0.00 0.00 35 1013.6
20260831222204 98 240 3.5 8.7 0.00 0.00 0.00 34 1013.6
20260831222104 98 244 3.5 8.7 0.00 0.00 0.00 35 1013.7
20260831222004 98 248 4.3 8.7 0.00 0.00 0.00 35 1013.7
20260831221904 98 250 4.3 8.7 0.00 0.00 0.00 35 1013.8
20260831221804 98 254 3.5 8.7 0.00 0.00 0.00 34 1013.6
20260831221704 98 257 3.5 8.7 0.00 0.00 0.00 35 1013.7
20260831221604 98 261 3.5 8.7 0.00 0.00 0.00 35 1013.7
20260831221504 98 261 3.5 8.7 0.00 0.00 0.00 35 1013.7
20260831221404 98 263 3.5 8.7 0.00 0.00 0.00 36 1013.6
20260831221304 98 263 3.5 8.7 0.00 0.00 0.00 36 1013.6
20260831221204 98 263 3.5 8.7 0.00 0.00 0.00 35 1013.6
20260831221104 98 263 3.5 8.7 0.00 0.00 0.00 35 1013.6
20260831221004 99 261 3.5 8.7 0.00 0.00 0.00 35 1013.6
20260831220904 99 261 3.5 8.7 0.00 0.00 0.00 35 1013.6
20260831220804 99 258 3.5 8.7 0.00 0.00 0.00 35 1013.6
20260831220725 99 257 3.5 8.7 0.00 0.00 0.00 35 1013.6
20260831220625 99 255 2.6 8.7 0.00 0.00 0.00 35 1013.6
20260831220504 99 252 2.6 7.0 0.00 0.00 0.00 35 1013.6
20260831220404 99 250 2.6 7.0 0.00 0.00 0.00 35 1013.6
20260831220304 99 249 2.6 7.0 0.00 0.00 0.00 35 1013.6
20260831220204 100 252 2.6 5.2 0.00 0.00 0.00 35 1013.6
20260831220104 100 257 2.6 7.0 0.00 0.00 0.00 35 1013.6
20260831220004 100 266 2.6 7.0 0.00 0.00 0.00 35 1013.6
20260831215925 100 274 2.6 7.0 0.00 0.00 0.00 34 1013.6
20260831215804 100 280 2.6 7.0 0.00 0.00 0.00 35 1013.6
20260831215704 100 283 2.6 7.0 0.00 0.00 0.00 35 1013.6
20260831215625 99 286 2.6 7.0 0.00 0.00 0.00 35 1013.6
20260831215504 99 292 2.6 7.0 0.00 0.00 0.00 35 1013.6
20260831215404 99 299 2.6 7.0 0.00 0.00 0.00 34 1013.6
20260831215306 99 294 2.6 7.0 0.00 0.00 0.00 34 1013.7
20260831215225 99 293 2.6 7.0 0.00 0.00 0.00 34 1013.7
20260831215104 99 279 2.6 6.1 0.00 0.00 0.00 35 1013.7
20260831215004 99 270 1.7 6.1 0.00 0.00 0.00 34 1013.8
20260831214904 99 262 1.7 7.0 0.00 0.00 0.00 35 1013.8
20260831214825 99 261 1.7 7.0 0.00 0.00 0.00 34 1013.8
20260831214704 99 259 2.6 7.0 0.00 0.00 0.00 34 1013.8
20260831214625 99 258 2.6 7.0 0.00 0.00 0.00 34 1013.8
20260831214504 99 257 2.6 7.0 0.00 0.00 0.00 34 1013.9
20260831214425 99 253 1.7 7.0 0.00 0.00 0.00 34 1013.9
20260831214325 99 253 1.7 7.0 0.00 0.00 0.00 33 1013.9
20260831214204 99 255 1.7 7.0 0.00 0.00 0.00 32 1013.9
20260831214104 99 257 2.6 7.0 0.00 0.00 0.00 33 1013.9
20260831214004 99 262 2.6 7.0 0.00 0.00 0.00 32 1014.0
20260831213904 99 266 2.6 7.8 0.00 0.00 0.00 33 1014.0
20260831213804 99 274 3.5 7.8 0.00 0.00 0.00 32 1014.0
20260831213725 99 279 3.5 7.8 0.00 0.00 0.00 32 1014.0
20260831213604 99 291 3.5 7.8 0.00 0.00 0.00 33 1014.0
20260831213504 99 305 3.5 7.8 0.00 0.00 0.00 34 1014.0
20260831213404 99 307 3.5 7.8 0.00 0.00 0.00 34 1014.0
20260831213304 99 306 3.5 7.8 0.00 0.00 0.00 33 1014.1
20260831213204 99 305 3.5 7.8 0.00 0.00 0.00 34 1014.1
20260831213104 99 308 3.5 7.8 0.00 0.00 0.00 34 1014.2
20260831213004 99 312 3.5 7.8 0.00 0.00 0.00 34 1014.1
20260831212904 99 313 2.6 7.8 0.00 0.00 0.00 34 1014.1
20260831212825 99 308 2.6 7.8 0.00 0.00 0.00 34 1014.1
20260831212704 99 314 2.6 7.8 0.00 0.00 0.00 34 1014.1
20260831212604 99 309 2.6 8.7 0.00 0.00 0.00 35 1014.1
20260831212504 98 300 2.6 8.7 0.00 0.00 0.00 35 1014.1
20260831212404 98 312 3.5 8.7 0.00 0.00 0.00 35 1014.1
20260831212306 98 317 3.5 8.7 0.00 0.00 0.00 35 1014.0
20260831212204 98 331 3.5 8.7 0.00 0.00 0.00 35 1014.0
20260831212125 98 340 3.5 8.7 0.00 0.00 0.00 35 1014.1
20260831212025 98 349 3.5 8.7 0.00 0.00 0.00 34 1014.1
20260831211904 99 2 3.5 8.7 0.00 0.00 0.00 35 1014.2
20260831211804 98 12 3.5 8.7 0.00 0.00 0.00 35 1014.1
20260831211704 98 15 3.5 9.6 0.00 0.00 0.00 35 1014.2
20260831211604 99 24 3.5 9.6 0.00 0.00 0.00 35 1014.2
20260831211525 99 27 3.5 9.6 0.00 0.00 0.00 35 1014.3
20260831211403 99 32 3.5 9.6 0.00 0.00 0.00 34 1014.2
20260831211304 99 35 3.5 9.6 0.00 0.00 0.00 35 1014.3
20260831211204 99 30 4.3 9.6 0.00 0.00 0.00 35 1014.3
20260831211104 99 20 4.3 9.6 0.00 0.00 0.00 35 1014.3
20260831211004 99 12 3.5 9.6 0.00 0.00 0.00 34 1014.3
20260831210904 99 5 3.5 9.6 0.00 0.00 0.00 34 1014.3
20260831210804 99 352 3.5 9.6 0.00 0.00 0.00 34 1014.4
20260831210704 99 324 3.5 7.8 0.00 0.00 0.00 35 1014.4
20260831210604 99 305 3.5 7.0 0.00 0.00 0.00 34 1014.4
20260831210504 98 288 3.5 7.0 0.00 0.00 0.00 35 1014.4
20260831210403 98 276 3.5 7.0 0.00 0.00 0.00 35 1014.5
20260831210304 98 276 3.5 7.0 0.00 0.00 0.00 35 1014.5
20260831210204 98 276 2.6 7.0 0.00 0.00 0.00 35 1014.5
20260831210104 98 273 2.6 7.0 0.00 0.00 0.00 35 1014.5
20260831210004 98 275 2.6 7.0 0.00 0.00 0.00 35 1014.6
20260831205904 98 278 2.6 7.0 0.00 0.00 0.00 36 1014.6
20260831205804 98 282 2.6 7.0 0.00 0.00 0.00 35 1014.5
20260831205704 98 284 2.6 7.0 0.00 0.00 0.00 35 1014.5
20260831205604 98 284 2.6 7.0 0.00 0.00 0.00 36 1014.6
20260831205504 98 280 2.6 7.0 0.00 0.00 0.00 35 1014.6
20260831205404 98 280 2.6 7.0 0.00 0.00 0.00 35 1014.6
20260831205305 98 276 2.6 7.0 0.00 0.00 0.00 36 1014.6
20260831205204 98 268 2.6 7.8 0.00 0.00 0.00 36 1014.6
20260831205104 98 264 2.6 7.8 0.00 0.00 0.00 36 1014.6
20260831205004 98 265 2.6 7.8 0.00 0.00 0.00 36 1014.7
20260831204904 98 264 3.5 7.8 0.00 0.00 0.00 36 1014.8
20260831204804 98 260 3.5 7.8 0.00 0.00 0.00 36 1014.7
20260831204704 98 260 2.6 7.8 0.00 0.00 0.00 35 1014.8
20260831204604 98 262 2.6 7.8 0.00 0.00 0.00 36 1014.8
20260831204504 98 266 2.6 7.8 0.00 0.00 0.00 36 1014.8
20260831204404 98 264 3.5 7.8 0.00 0.00 0.00 36 1014.8
20260831204304 98 262 3.5 7.8 0.00 0.00 0.00 36 1014.8
20260831204204 98 262 2.6 7.8 0.00 0.00 0.00 35 1014.8
20260831204104 98 263 2.6 7.8 0.00 0.00 0.00 35 1014.9
20260831204025 98 264 2.6 7.8 0.00 0.00 0.00 35 1014.9
20260831203904 98 265 2.6 7.8 0.00 0.00 0.00 35 1014.9
20260831203825 98 268 2.6 7.8 0.00 0.00 0.00 36 1014.9
20260831203704 97 270 2.6 7.8 0.00 0.00 0.00 36 1015.0
20260831203604 97 271 2.6 7.8 0.00 0.00 0.00 35 1015.0
20260831203504 97 274 2.6 7.8 0.00 0.00 0.00 35 1015.1
20260831203404 97 285 2.6 7.8 0.00 0.00 0.00 34 1015.0
20260831203304 97 291 1.7 7.8 0.00 0.00 0.00 37 1015.1
20260831203204 97 296 1.7 7.8 0.00 0.00 0.00 38 1015.0
20260831203104 97 299 1.7 7.8 0.00 0.00 0.00 36 1015.1
20260831203004 97 304 1.7 7.8 0.00 0.00 0.00 36 1015.1
20260831202904 98 313 1.7 7.8 0.00 0.00 0.00 36 1015.1
20260831202825 98 319 1.7 7.8 0.00 0.00 0.00 36 1015.1
20260831202704 98 323 2.6 7.8 0.00 0.00 0.00 36 1015.1
20260831202625 98 325 2.6 7.8 0.00 0.00 0.00 36 1015.2
20260831202504 98 335 2.6 7.8 0.00 0.00 0.00 35 1015.2
20260831202404 98 331 2.6 7.8 0.00 0.00 0.00 35 1015.2
20260831202306 98 330 2.6 7.8 0.00 0.00 0.00 35 1015.2
20260831202225 98 325 2.6 7.8 0.00 0.00 0.00 35 1015.2
20260831202104 98 322 3.5 7.8 0.00 0.00 0.00 35 1015.2
20260831202025 98 322 2.6 7.8 0.00 0.00 0.00 35 1015.2
20260831201904 98 325 2.6 7.8 0.00 0.00 0.00 35 1015.3
20260831201803 98 338 2.6 7.8 0.00 0.00 0.00 35 1015.3
20260831201704 98 355 2.6 7.8 0.00 0.00 0.00 36 1015.3
20260831201625 98 3 2.6 7.8 0.00 0.00 0.00 35 1015.3
20260831201504 98 352 2.6 7.8 0.00 0.00 0.00 36 1015.3
20260831201404 98 1 2.6 7.8 0.00 0.00 0.00 36 1015.4
20260831201304 98 2 2.6 7.8 0.00 0.00 0.00 35 1015.4
20260831201204 99 7 2.6 7.8 0.00 0.00 0.00 35 1015.4
20260831201103 99 6 2.6 7.8 0.00 0.00 0.00 35 1015.4
20260831201003 99 359 3.5 7.8 0.00 0.00 0.00 36 1015.4
20260831200904 98 351 3.5 10.4 0.00 0.00 0.00 35 1015.4
20260831200804 99 347 3.5 10.4 0.00 0.00 0.00 35 1015.4
20260831200704 99 342 3.5 10.4 0.00 0.00 0.00 35 1015.5
20260831200625 99 338 3.5 10.4 0.00 0.00 0.00 35 1015.4
20260831200504 98 331 3.5 10.4 0.00 0.00 0.00 36 1015.5
20260831200404 98 326 3.5 10.4 0.00 0.00 0.00 36 1015.5
20260831200304 98 320 3.5 10.4 0.00 0.00 0.00 36 1015.5
20260831200225 98 312 3.5 10.4 0.00 0.00 0.00 36 1015.5
20260831200104 98 303 3.5 10.4 0.00 0.00 0.00 36 1015.5
20260831200003 98 298 3.5 10.4 0.00 0.00 0.00 36 1015.5
20260831195904 98 292 3.5 9.6 0.00 0.00 0.00 36 1015.5
20260831195804 98 284 3.5 9.6 0.00 0.00 0.00 36 1015.4
20260831195725 97 280 3.5 9.6 0.00 0.00 0.00 36 1015.5
20260831195603 97 281 3.5 9.6 0.00 0.00 0.00 36 1015.6
20260831195504 97 278 3.5 9.6 0.00 0.00 0.00 36 1015.6
20260831195404 97 274 3.5 7.8 0.00 0.00 0.00 36 1015.6
20260831195325 97 280 3.5 7.8 0.00 0.00 0.00 36 1015.6
20260831195225 97 289 3.5 7.8 0.00 0.00 0.00 35 1015.6
20260831195104 97 305 3.5 7.8 0.00 0.00 0.00 35 1015.6
20260831195004 97 316 3.5 7.8 0.00 0.00 0.00 35 1015.7
20260831194904 97 324 3.5 7.8 0.00 0.00 0.00 35 1015.7
20260831194803 97 323 3.5 7.8 0.00 0.00 0.00 35 1015.7
20260831194725 97 324 2.6 7.8 0.00 0.00 0.00 36 1015.7
20260831194604 97 328 2.6 7.8 0.00 0.00 0.00 35 1015.7
20260831194504 97 329 2.6 7.8 0.00 0.00 0.00 35 1015.7
20260831194425 97 328 2.6 7.8 0.00 0.00 0.00 35 1015.7
20260831194303 96 315 2.6 7.8 0.00 0.00 0.00 37 1015.7
20260831194204 96 310 2.6 7.8 0.00 0.00 0.00 37 1015.7
20260831194125 96 302 2.6 7.8 0.00 0.00 0.00 37 1015.7
20260831194004 96 294 2.6 7.8 0.00 0.00 0.00 36 1015.8
20260831193904 96 280 2.6 7.0 0.00 0.00 0.00 37 1015.7
20260831193804 96 289 2.6 7.0 0.00 0.00 0.00 37 1015.7
20260831193703 96 299 2.6 7.0 0.00 0.00 0.00 37 1015.8
20260831193604 96 310 2.6 7.0 0.00 0.00 0.00 37 1015.8
20260831193525 97 320 2.6 7.0 0.00 0.00 0.00 36 1015.9
20260831193425 97 334 2.6 7.0 0.00 0.00 0.00 37 1015.9
20260831193304 96 350 2.6 7.0 0.00 0.00 0.00 37 1015.9
20260831193204 96 359 2.6 7.0 0.00 0.00 0.00 37 1015.9
20260831193125 96 5 2.6 7.0 0.00 0.00 0.00 37 1015.9
20260831193004 96 13 2.6 7.0 0.00 0.00 0.00 37 1015.9
20260831192904 96 14 2.6 7.0 0.00 0.00 0.00 37 1015.9
20260831192803 96 17 2.6 7.0 0.00 0.00 0.00 37 1015.9
20260831192704 96 19 2.6 7.0 0.00 0.00 0.00 36 1015.9
20260831192604 96 14 2.6 7.0 0.00 0.00 0.00 37 1016.0
20260831192504 96 14 2.6 7.0 0.00 0.00 0.00 37 1016.0
20260831192404 97 360 2.6 7.0 0.00 0.00 0.00 36 1016.0
20260831192305 97 339 2.6 7.0 0.00 0.00 0.00 36 1016.0
20260831192204 97 344 2.6 7.0 0.00 0.00 0.00 36 1016.0
20260831192125 97 334 2.6 7.0 0.00 0.00 0.00 36 1016.0
20260831192004 97 314 2.6 6.1 0.00 0.00 0.00 36 1016.0
20260831191904 97 313 2.6 6.1 0.00 0.00 0.00 36 1016.1
20260831191803 97 311 2.6 6.1 0.00 0.00 0.00 36 1016.1
20260831191704 97 312 2.6 6.1 0.00 0.00 0.00 37 1016.1
20260831191625 97 314 2.6 6.1 0.00 0.00 0.00 37 1016.2
20260831191504 96 313 2.6 6.1 0.00 0.00 0.00 37 1016.2
20260831191425 96 313 3.5 7.8 0.00 0.00 0.00 37 1016.2
20260831191325 96 320 3.5 8.7 0.00 0.00 0.00 37 1016.2
20260831191204 96 319 3.5 8.7 0.00 0.00 0.00 37 1016.2
20260831191125 96 330 3.5 8.7 0.00 0.00 0.00 36 1016.2
20260831191025 96 347 3.5 8.7 0.00 0.00 0.00 36 1016.2
20260831190904 96 9 3.5 8.7 0.00 0.00 0.00 37 1016.2
20260831190804 96 23 3.5 8.7 0.00 0.00 0.00 37 1016.2
20260831190704 96 28 4.3 8.7 0.00 0.00 0.00 37 1016.2
20260831190604 96 31 4.3 8.7 0.00 0.00 0.00 37 1016.2
20260831190503 96 36 4.3 8.7 0.00 0.00 0.00 37 1016.3
20260831190404 95 43 4.3 7.0 0.00 0.00 0.00 38 1016.2
20260831190304 95 34 3.5 7.0 0.00 0.00 0.00 37 1016.2
20260831190204 95 27 3.5 7.0 0.00 0.00 0.00 38 1016.2
20260831190104 95 15 3.5 7.0 0.00 0.00 0.00 38 1016.3
20260831190004 95 358 3.5 7.8 0.00 0.00 0.00 37 1016.4
20260831185925 95 354 3.5 7.8 0.00 0.00 0.00 38 1016.4
20260831185825 95 354 3.5 7.8 0.00 0.00 0.00 37 1016.4
20260831185704 95 342 3.5 7.8 0.00 0.00 0.00 37 1016.4
20260831185604 95 322 3.5 7.8 0.00 0.00 0.00 37 1016.4
20260831185504 96 313 3.5 7.8 0.00 0.00 0.00 37 1016.4
20260831185404 96 317 3.5 7.8 0.00 0.00 0.00 37 1016.4
20260831185306 96 323 3.5 7.8 0.00 0.00 0.00 37 1016.4
20260831185203 96 334 3.5 7.8 0.00 0.00 0.00 37 1016.4
20260831185103 96 347 3.5 7.8 0.00 0.00 0.00 37 1016.5
20260831185004 96 6 2.6 6.1 0.00 0.00 0.00 37 1016.4
20260831184903 96 11 2.6 6.1 0.00 0.00 0.00 36 1016.4
20260831184804 96 9 2.6 6.1 0.00 0.00 0.00 36 1016.5
20260831184704 96 15 3.5 6.1 0.00 0.00 0.00 36 1016.5
20260831184604 96 25 3.5 6.1 0.00 0.00 0.00 36 1016.6
20260831184503 96 28 3.5 6.1 0.00 0.00 0.00 36 1016.5
20260831184404 96 32 2.6 6.1 0.00 0.00 0.00 36 1016.5
20260831184304 96 26 3.5 6.1 0.00 0.00 0.00 36 1016.5
20260831184225 96 17 3.5 6.1 0.00 0.00 0.00 36 1016.5
20260831184104 95 352 3.5 7.0 0.00 0.00 0.00 37 1016.5
20260831184003 95 336 3.5 8.7 0.00 0.00 0.00 36 1016.5
20260831183904 95 325 3.5 8.7 0.00 0.00 0.00 36 1016.5
20260831183804 95 318 3.5 8.7 0.00 0.00 0.00 37 1016.5
20260831183704 95 315 3.5 8.7 0.00 0.00 0.00 37 1016.5
20260831183604 95 319 3.5 8.7 0.00 0.00 0.00 37 1016.5
20260831183503 95 320 3.5 8.7 0.00 0.00 0.00 37 1016.6
20260831183404 95 318 3.5 8.7 0.00 0.00 0.00 36 1016.5
20260831183304 95 324 3.5 8.7 0.00 0.00 0.00 36 1016.7
20260831183204 95 331 4.3 8.7 0.00 0.00 0.00 36 1016.7
20260831183103 95 340 4.3 8.7 0.00 0.00 0.00 36 1016.7
20260831183003 95 342 4.3 8.7 0.00 0.00 0.00 36 1016.7
20260831182925 95 345 4.3 8.7 0.00 0.00 0.00 36 1016.7
20260831182803 95 342 4.3 8.7 0.00 0.00 0.00 36 1016.7
20260831182703 95 336 3.5 8.7 0.00 0.00 0.00 36 1016.7
20260831182603 95 325 3.5 8.7 0.00 0.00 0.00 36 1016.7
20260831182504 95 327 3.5 8.7 0.00 0.00 0.00 36 1016.7
20260831182404 95 335 3.5 8.7 0.00 0.00 0.00 36 1016.7
20260831182324 95 340 3.5 7.8 0.00 0.00 0.00 36 1016.7
20260831182204 95 338 3.5 7.8 0.00 0.00 0.00 36 1016.7
20260831182104 96 337 3.5 7.8 0.00 0.00 0.00 35 1016.7
20260831182004 95 340 3.5 9.6 0.00 0.00 0.00 35 1016.7
20260831181903 95 349 3.5 9.6 0.00 0.00 0.00 35 1016.7
20260831181804 96 359 3.5 9.6 0.00 0.00 0.00 35 1016.8
20260831181704 96 12 3.5 9.6 0.00 0.00 0.00 35 1016.8
20260831181604 96 18 3.5 9.6 0.00 0.00 0.00 35 1016.8
20260831181504 96 20 3.5 9.6 0.00 0.00 0.00 35 1016.8
20260831181404 95 14 3.5 9.6 0.00 0.00 0.00 35 1016.7
20260831181303 95 4 3.5 9.6 0.00 0.00 0.00 35 1016.8
20260831181204 95 10 2.6 9.6 0.00 0.00 0.00 35 1016.8
20260831181104 95 15 2.6 9.6 0.00 0.00 0.00 35 1016.8
20260831181003 94 30 2.6 7.0 0.00 0.00 0.00 35 1016.8
20260831180903 94 19 2.6 6.1 0.00 0.00 0.00 35 1016.7
20260831180825 94 3 2.6 6.1 0.00 0.00 0.00 35 1016.8
20260831180725 94 312 1.7 6.1 0.00 0.00 0.00 35 1016.7
20260831180625 94 292 1.7 6.1 0.00 0.00 0.00 35 1016.8
20260831180504 94 309 2.6 6.1 0.00 0.00 0.00 35 1016.8
20260831180404 94 313 2.6 6.1 0.00 0.00 0.00 35 1016.9
20260831180304 94 321 2.6 6.1 0.00 0.00 0.00 35 1016.9
20260831180225 94 319 1.7 6.1 0.00 0.00 0.00 35 1016.9
20260831180125 94 313 2.6 6.1 0.00 0.00 0.00 35 1016.9
20260831180004 94 312 2.6 7.8 0.00 0.00 0.00 35 1016.9
20260831175904 94 314 2.6 9.6 0.00 0.00 0.00 35 1016.9
20260831175803 94 317 2.6 9.6 0.00 0.00 0.00 35 1016.9
20260831175703 94 318 2.6 9.6 0.00 0.00 0.00 35 1017.0
20260831175604 94 318 3.5 9.6 0.00 0.00 0.00 35 1017.0
20260831175504 94 323 3.5 9.6 0.00 0.00 0.00 35 1017.0
20260831175404 94 328 3.5 9.6 0.00 0.00 0.00 35 1017.0
20260831175306 94 331 3.5 9.6 0.00 0.00 0.00 35 1017.0
20260831175203 94 332 3.5 9.6 0.00 0.00 0.00 35 1017.1
20260831175104 94 341 3.5 9.6 0.00 0.00 0.00 35 1017.1
20260831175025 94 343 3.5 9.6 0.00 0.00 0.00 35 1017.1
20260831174904 94 360 3.5 7.0 0.00 0.00 0.00 35 1017.0
20260831174803 94 13 3.5 7.0 0.00 0.00 0.00 34 1017.1
20260831174704 94 17 3.5 7.0 0.00 0.00 0.00 34 1017.2
20260831174603 94 19 2.6 7.0 0.00 0.00 0.00 34 1017.2
20260831174503 94 2 3.5 7.0 0.00 0.00 0.00 33 1017.2
20260831174425 94 351 3.5 7.0 0.00 0.00 0.00 33 1017.2
20260831174325 95 345 3.5 7.0 0.00 0.00 0.00 33 1017.2
20260831174204 94 344 2.6 7.0 0.00 0.00 0.00 33 1017.2
20260831174103 94 331 2.6 7.0 0.00 0.00 0.00 33 1017.3
20260831174004 94 321 2.6 7.0 0.00 0.00 0.00 33 1017.3
20260831173903 94 314 2.6 7.0 0.00 0.00 0.00 33 1017.3
20260831173803 94 304 2.6 7.0 0.00 0.00 0.00 33 1017.3
20260831173704 94 301 2.6 7.0 0.00 0.00 0.00 33 1017.3
20260831173604 94 306 2.6 7.0 0.00 0.00 0.00 33 1017.3
20260831173504 94 318 2.6 7.0 0.00 0.00 0.00 32 1017.3
20260831173404 94 322 2.6 7.0 0.00 0.00 0.00 32 1017.3
20260831173304 94 330 2.6 7.0 0.00 0.00 0.00 32 1017.3
20260831173204 94 343 2.6 7.0 0.00 0.00 0.00 32 1017.3
20260831173104 93 346 2.6 7.8 0.00 0.00 0.00 32 1017.4
20260831173004 93 349 2.6 7.8 0.00 0.00 0.00 32 1017.4
20260831172904 93 352 2.6 7.8 0.00 0.00 0.00 31 1017.4
20260831172804 93 352 2.6 7.8 0.00 0.00 0.00 31 1017.4
20260831172703 94 354 2.6 7.8 0.00 0.00 0.00 31 1017.4
20260831172603 93 358 2.6 7.8 0.00 0.00 0.00 31 1017.4
20260831172503 93 1 2.6 7.8 0.00 0.00 0.00 31 1017.4
20260831172403 93 15 2.6 7.8 0.00 0.00 0.00 31 1017.4
20260831172306 93 17 2.6 7.8 0.00 0.00 0.00 30 1017.4
20260831172203 93 10 2.6 8.7 0.00 0.00 0.00 30 1017.4
20260831172103 93 11 2.6 8.7 0.00 0.00 0.00 30 1017.4
20260831172003 92 16 2.6 8.7 0.00 0.00 0.00 30 1017.5
20260831171904 92 16 3.5 8.7 0.00 0.00 0.00 30 1017.4
20260831171804 92 21 3.5 8.7 0.00 0.00 0.00 30 1017.5
20260831171725 92 21 3.5 8.7 0.00 0.00 0.00 30 1017.5
20260831171603 92 19 3.5 8.7 0.00 0.00 0.00 29 1017.5
20260831171504 92 19 4.3 8.7 0.00 0.00 0.00 29 1017.5
20260831171425 93 20 4.3 10.4 0.00 0.00 0.00 29 1017.6
20260831171304 93 20 4.3 10.4 0.00 0.00 0.00 29 1017.6
20260831171204 93 18 4.3 10.4 0.00 0.00 0.00 28 1017.6
20260831171125 93 19 4.3 10.4 0.00 0.00 0.00 28 1017.5
20260831171004 92 23 4.3 10.4 0.00 0.00 0.00 28 1017.5
20260831170904 92 27 4.3 10.4 0.00 0.00 0.00 28 1017.5
20260831170804 92 27 4.3 10.4 0.00 0.00 0.00 28 1017.6
20260831170703 92 33 4.3 10.4 0.00 0.00 0.00 28 1017.6
20260831170604 92 38 4.3 10.4 0.00 0.00 0.00 28 1017.6
20260831170525 92 36 3.5 10.4 0.00 0.00 0.00 28 1017.6
20260831170425 92 37 3.5 7.8 0.00 0.00 0.00 27 1017.6
20260831170303 92 26 3.5 7.8 0.00 0.00 0.00 27 1017.7
20260831170204 92 31 3.5 7.8 0.00 0.00 0.00 27 1017.6
20260831170104 92 33 3.5 7.8 0.00 0.00 0.00 27 1017.7
20260831170004 92 28 3.5 7.8 0.00 0.00 0.00 26 1017.8
20260831165904 92 20 3.5 7.8 0.00 0.00 0.00 26 1017.8
20260831165804 92 6 3.5 7.8 0.00 0.00 0.00 26 1017.8
20260831165703 92 349 3.5 7.8 0.00 0.00 0.00 25 1017.8
20260831165603 91 340 2.6 7.8 0.00 0.00 0.00 25 1017.8
20260831165504 91 317 2.6 7.8 0.00 0.00 0.00 25 1017.8
20260831165404 91 298 2.6 7.8 0.00 0.00 0.00 25 1017.8
20260831165305 91 293 2.6 7.8 0.00 0.00 0.00 25 1017.8
20260831165203 91 298 2.6 7.8 0.00 0.00 0.00 25 1017.8
20260831165103 91 293 2.6 7.8 0.00 0.00 0.00 25 1017.9
20260831165003 91 296 2.6 7.8 0.00 0.00 0.00 25 1017.8
20260831164924 92 298 2.6 7.8 0.00 0.00 0.00 25 1017.8
20260831164824 92 303 2.6 7.8 0.00 0.00 0.00 25 1017.9
20260831164725 92 308 1.7 7.8 0.00 0.00 0.00 25 1017.8
20260831164603 92 307 2.6 7.8 0.00 0.00 0.00 25 1017.8
20260831164504 92 315 2.6 7.8 0.00 0.00 0.00 25 1017.8
20260831164403 92 350 2.6 7.8 0.00 0.00 0.00 24 1017.8
20260831164304 92 3 2.6 7.8 0.00 0.00 0.00 24 1017.8
20260831164204 92 6 2.6 7.8 0.00 0.00 0.00 22 1017.7
20260831164104 92 2 2.6 7.8 0.00 0.00 0.00 22 1017.7
20260831164025 92 360 2.6 7.8 0.00 0.00 0.00 22 1017.7
20260831163904 91 2 2.6 7.8 0.00 0.00 0.00 22 1017.8
20260831163803 91 5 3.5 7.8 0.00 0.00 0.00 22 1017.8
20260831163724 91 358 3.5 7.8 0.00 0.00 0.00 22 1017.9
20260831163604 91 11 3.5 7.8 0.00 0.00 0.00 22 1017.9
20260831163504 91 19 3.5 7.8 0.00 0.00 0.00 22 1017.8
20260831163404 91 15 2.6 7.0 0.00 0.00 0.00 22 1017.8
20260831163325 91 14 2.6 7.0 0.00 0.00 0.00 21 1017.8
20260831163204 91 18 2.6 7.0 0.00 0.00 0.00 20 1017.8
20260831163104 91 27 2.6 7.0 0.00 0.00 0.00 20 1017.8
20260831163004 91 37 2.6 7.0 0.00 0.00 0.00 19 1017.8
20260831162925 91 43 3.5 7.8 0.00 0.00 0.00 19 1017.7
20260831162804 91 47 2.6 7.8 0.00 0.00 0.00 18 1017.7
20260831162703 91 51 2.6 7.8 0.00 0.00 0.00 16 1017.8
20260831162603 90 46 2.6 7.8 0.00 0.00 0.00 16 1017.7
20260831162503 90 48 2.6 7.8 0.00 0.00 0.00 15 1017.7
20260831162404 90 50 2.6 7.8 0.00 0.00 0.00 15 1017.7
20260831162306 90 50 3.5 7.8 0.00 0.00 0.00 15 1017.7
20260831162204 90 50 3.5 7.8 0.00 0.00 0.00 14 1017.7
20260831162104 90 48 3.5 7.8 0.00 0.00 0.00 14 1017.7
20260831162003 90 47 3.5 7.8 0.00 0.00 0.00 14 1017.6
20260831161904 90 45 3.5 7.0 0.00 0.00 0.00 13 1017.6
20260831161803 90 42 3.5 7.0 0.00 0.00 0.00 12 1017.7
20260831161704 90 46 3.5 7.0 0.00 0.00 0.00 11 1017.6
20260831161604 90 49 3.5 7.0 0.00 0.00 0.00 10 1017.6
20260831161504 90 48 3.5 7.0 0.00 0.00 0.00 11 1017.6
20260831161404 90 45 3.5 7.0 0.00 0.00 0.00 11 1017.6
20260831161304 90 43 3.5 7.0 0.00 0.00 0.00 9 1017.7
20260831161204 90 39 3.5 7.8 0.00 0.00 0.00 9 1017.7
20260831161104 90 34 3.5 7.8 0.00 0.00 0.00 9 1017.6
20260831161003 90 32 3.5 7.8 0.00 0.00 0.00 10 1017.7
20260831160904 90 29 3.5 7.8 0.00 0.00 0.00 10 1017.7
20260831160804 89 32 3.5 7.8 0.00 0.00 0.00 9 1017.6
20260831160704 89 34 3.5 7.8 0.00 0.00 0.00 9 1017.7
20260831160603 89 34 4.3 7.8 0.00 0.00 0.00 8 1017.7
20260831160525 89 34 4.3 7.8 0.00 0.00 0.00 8 1017.7
20260831160404 89 36 3.5 7.8 0.00 0.00 0.00 5 1017.8
20260831160304 89 40 3.5 7.8 0.00 0.00 0.00 3 1017.7
20260831160203 89 45 3.5 7.8 0.00 0.00 0.00 2 1017.7
20260831160103 89 50 3.5 7.8 0.00 0.00 0.00 2 1017.7
20260831160004 88 48 3.5 7.8 0.00 0.00 0.00 1 1017.8
20260831155903 88 47 4.3 7.8 0.00 0.00 0.00 2 1017.8
20260831155804 88 46 4.3 9.6 0.00 0.00 0.00 2 1017.8
20260831155704 88 47 4.3 9.6 0.00 0.00 0.00 3 1017.8
20260831155604 88 47 3.5 9.6 0.00 0.00 0.00 1 1017.8
20260831155503 88 47 4.3 9.6 0.00 0.00 0.00 1 1017.8
20260831155403 88 48 4.3 9.6 0.00 0.00 0.00 1 1017.8
20260831155306 88 47 4.3 9.6 0.00 0.00 0.00 1 1017.8
20260831155203 88 47 3.5 9.6 0.00 0.00 0.00 1 1017.8
20260831155103 88 48 3.5 9.6 0.00 0.00 0.00 1 1017.8
20260831155003 88 48 3.5 9.6 0.00 0.00 0.00 1 1017.8
20260831154925 88 48 3.5 9.6 0.00 0.00 0.00 1 1017.8
20260831154804 88 49 3.5 7.0 0.00 0.00 0.00 1 1017.7
20260831154703 88 45 3.5 7.0 0.00 0.00 0.00 1 1017.8
20260831154603 88 44 3.5 7.0 0.00 0.00 0.00 1 1017.7
20260831154525 88 44 3.5 7.0 0.00 0.00 0.00 1 1017.8
20260831154403 88 37 3.5 7.8 0.00 0.00 0.00 1 1017.7
20260831154303 88 35 3.5 7.8 0.00 0.00 0.00 1 1017.7
20260831154203 87 34 3.5 7.8 0.00 0.00 0.00 1 1017.8
20260831154103 87 33 3.5 7.8 0.00 0.00 0.00 1 1017.8
20260831154003 87 34 3.5 7.8 0.00 0.00 0.00 1 1017.8
20260831153904 87 34 3.5 7.8 0.00 0.00 0.00 1 1017.7
20260831153804 87 34 3.5 7.8 0.00 0.00 0.00 1 1017.8
20260831153703 87 37 3.5 7.8 0.00 0.00 0.00 1 1017.7
20260831153624 87 37 3.5 8.7 0.00 0.00 0.00 1 1017.8
20260831153504 88 37 3.5 8.7 0.00 0.00 0.00 1 1017.8
20260831153404 88 37 3.5 8.7 0.00 0.00 0.00 1 1017.8
20260831153304 87 38 3.5 8.7 0.00 0.00 0.00 1 1017.8
20260831153204 87 40 3.5 8.7 0.00 0.00 0.00 1 1017.7
20260831153104 87 39 4.3 8.7 0.00 0.00 0.00 1 1017.7
20260831153004 87 41 4.3 8.7 0.00 0.00 0.00 1 1017.7
20260831152903 87 40 4.3 8.7 0.00 0.00 0.00 1 1017.7
20260831152803 86 40 4.3 8.7 0.00 0.00 0.00 1 1017.7
20260831152703 86 40 4.3 8.7 0.00 0.00 0.00 1 1017.7
20260831152604 86 39 4.3 8.7 0.00 0.00 0.00 1 1017.6
20260831152524 86 39 4.3 8.7 0.00 0.00 0.00 1 1017.7
20260831152403 86 40 4.3 8.7 0.00 0.00 0.00 1 1017.7
20260831152306 86 36 4.3 8.7 0.00 0.00 0.00 1 1017.7
20260831152224 86 36 4.3 8.7 0.00 0.00 0.00 1 1017.7
20260831152103 86 36 4.3 7.8 0.00 0.00 0.00 1 1017.7
20260831152004 86 34 4.3 7.8 0.00 0.00 0.00 1 1017.6
20260831151903 86 37 4.3 7.8 0.00 0.00 0.00 1 1017.6
20260831151803 86 39 4.3 7.8 0.00 0.00 0.00 1 1017.6
20260831151704 86 41 4.3 7.8 0.00 0.00 0.00 1 1017.6
20260831151625 86 40 4.3 7.8 0.00 0.00 0.00 1 1017.5
20260831151504 86 41 4.3 7.8 0.00 0.00 0.00 1 1017.6
20260831151403 86 43 4.3 7.8 0.00 0.00 0.00 1 1017.5
20260831151324 86 44 4.3 7.8 0.00 0.00 0.00 1 1017.5
20260831151203 86 44 5.2 9.6 0.00 0.00 0.00 1 1017.6
20260831151103 86 45 5.2 9.6 0.00 0.00 0.00 1 1017.6
20260831151003 85 47 4.3 9.6 0.00 0.00 0.00 1 1017.5
20260831150903 85 45 4.3 9.6 0.00 0.00 0.00 1 1017.5
20260831150804 85 45 4.3 9.6 0.00 0.00 0.00 1 1017.5
20260831150703 85 44 5.2 9.6 0.00 0.00 0.00 1 1017.5
20260831150625 85 44 5.2 11.3 0.00 0.00 0.00 1 1017.5
20260831150503 85 45 5.2 11.3 0.00 0.00 0.00 1 1017.5
20260831150404 86 43 5.2 11.3 0.00 0.00 0.00 1 1017.5
20260831150303 86 42 5.2 11.3 0.00 0.00 0.00 1 1017.5
20260831150204 86 42 5.2 11.3 0.00 0.00 0.00 1 1017.5
20260831150103 85 42 5.2 11.3 0.00 0.00 0.00 1 1017.5
20260831150004 85 41 5.2 11.3 0.00 0.00 0.00 1 1017.5
20260831145903 85 41 5.2 11.3 0.00 0.00 0.00 1 1017.4
20260831145803 85 38 5.2 11.3 0.00 0.00 0.00 1 1017.5
20260831145725 85 37 5.2 11.3 0.00 0.00 0.00 1 1017.4
20260831145604 85 38 5.2 9.6 0.00 0.00 0.00 1 1017.4
20260831145503 85 40 5.2 9.6 0.00 0.00 0.00 1 1017.5
20260831145404 85 40 5.2 9.6 0.00 0.00 0.00 1 1017.5
20260831145325 85 41 5.2 9.6 0.00 0.00 0.00 1 1017.5
20260831145204 85 41 5.2 9.6 0.00 0.00 0.00 1 1017.5
20260831145103 85 39 5.2 10.4 0.00 0.00 0.00 1 1017.4
20260831145003 85 39 5.2 10.4 0.00 0.00 0.00 1 1017.4
20260831144903 84 38 5.2 10.4 0.00 0.00 0.00 1 1017.4
20260831144803 84 39 5.2 10.4 0.00 0.00 0.00 1 1017.4
20260831144703 84 38 5.2 10.4 0.00 0.00 0.00 1 1017.4
20260831144604 84 38 5.2 10.4 0.00 0.00 0.00 1 1017.4
20260831144504 84 36 5.2 10.4 0.00 0.00 0.00 1 1017.4
20260831144404 84 36 5.2 10.4 0.00 0.00 0.00 1 1017.4
20260831144325 84 36 5.2 10.4 0.00 0.00 0.00 1 1017.4
20260831144204 84 38 4.3 10.4 0.00 0.00 0.00 1 1017.4
20260831144103 84 39 4.3 8.7 0.00 0.00 0.00 1 1017.4
20260831144003 84 40 4.3 8.7 0.00 0.00 0.00 1 1017.4
20260831143904 84 41 4.3 8.7 0.00 0.00 0.00 1 1017.4
20260831143804 84 40 3.5 8.7 0.00 0.00 0.00 1 1017.3
20260831143703 85 40 3.5 8.7 0.00 0.00 0.00 1 1017.3
20260831143604 85 38 3.5 8.7 0.00 0.00 0.00 1 1017.3
20260831143525 85 36 3.5 7.8 0.00 0.00 0.00 1 1017.3
20260831143425 85 31 3.5 7.8 0.00 0.00 0.00 1 1017.3
20260831143324 85 21 2.6 7.8 0.00 0.00 0.00 1 1017.3
20260831143204 85 11 2.6 7.8 0.00 0.00 0.00 1 1017.3
20260831143103 85 6 2.6 7.8 0.00 0.00 0.00 1 1017.3
20260831143003 85 357 2.6 7.8 0.00 0.00 0.00 1 1017.3
20260831142904 85 352 2.6 7.8 0.00 0.00 0.00 1 1017.3
20260831142803 85 345 2.6 7.0 0.00 0.00 0.00 1 1017.3
20260831142703 84 331 2.6 5.2 0.00 0.00 0.00 1 1017.3
20260831142603 84 333 2.6 5.2 0.00 0.00 0.00 1 1017.3
20260831142504 84 338 2.6 7.0 0.00 0.00 0.00 1 1017.3
20260831142404 84 347 2.6 7.0 0.00 0.00 0.00 1 1017.3
20260831142324 84 352 3.5 7.0 0.00 0.00 0.00 1 1017.3
20260831142203 84 2 3.5 7.0 0.00 0.00 0.00 1 1017.3
20260831142103 84 8 3.5 7.0 0.00 0.00 0.00 1 1017.4
20260831142003 84 9 3.5 7.0 0.00 0.00 0.00 1 1017.4
20260831141904 84 7 3.5 7.0 0.00 0.00 0.00 1 1017.3
20260831141804 83 3 3.5 7.0 0.00 0.00 0.00 1 1017.3
20260831141703 83 10 3.5 7.0 0.00 0.00 0.00 1 1017.3
20260831141603 83 12 3.5 7.0 0.00 0.00 0.00 1 1017.2
20260831141504 83 19 3.5 7.0 0.00 0.00 0.00 1 1017.2
20260831141403 83 24 3.5 7.0 0.00 0.00 0.00 1 1017.3
20260831141324 83 24 3.5 7.0 0.00 0.00 0.00 1 1017.3
20260831141203 83 25 3.5 7.0 0.00 0.00 0.00 1 1017.3
20260831141104 83 27 2.6 7.0 0.00 0.00 0.00 1 1017.3
20260831141004 83 33 2.6 7.0 0.00 0.00 0.00 1 1017.2
20260831140903 82 39 2.6 7.0 0.00 0.00 0.00 1 1017.3
20260831140803 82 47 2.6 7.0 0.00 0.00 0.00 1 1017.3
20260831140704 82 49 2.6 7.0 0.00 0.00 0.00 1 1017.3
20260831140604 82 51 2.6 7.0 0.00 0.00 0.00 1 1017.2
20260831140504 82 52 2.6 6.1 0.00 0.00 0.00 1 1017.2
20260831140404 82 49 2.6 7.0 0.00 0.00 0.00 1 1017.2
20260831140303 82 50 2.6 7.0 0.00 0.00 0.00 1 1017.3
20260831140204 82 49 2.6 7.0 0.00 0.00 0.00 1 1017.2
20260831140004 81 47 2.6 7.0 0.00 0.00 0.00 1 1017.2
20260831135904 81 47 2.6 7.0 0.00 0.00 0.00 1 1017.2
20260831135804 81 45 2.6 7.0 0.00 0.00 0.00 1 1017.2
20260831135704 81 44 2.6 7.0 0.00 0.00 0.00 1 1017.2
20260831135603 81 43 3.5 7.0 0.00 0.00 0.00 1 1017.2
20260831135504 80 43 3.5 7.0 0.00 0.00 0.00 1 1017.2
20260831135404 80 43 3.5 7.0 0.00 0.00 0.00 1 1017.2
20260831135306 80 43 3.5 7.0 0.00 0.00 0.00 1 1017.2
20260831135203 80 42 3.5 7.0 0.00 0.00 0.00 1 1017.2
20260831135103 80 40 3.5 7.0 0.00 0.00 0.00 1 1017.2
20260831135003 80 42 3.5 7.0 0.00 0.00 0.00 1 1017.1
20260831134903 80 44 3.5 7.0 0.00 0.00 0.00 1 1017.0
20260831134803 80 46 3.5 7.0 0.00 0.00 0.00 1 1017.1
20260831134724 80 47 3.5 7.0 0.00 0.00 0.00 1 1017.0
20260831134624 80 49 3.5 7.0 0.00 0.00 0.00 1 1017.0
20260831134503 80 52 2.6 7.0 0.00 0.00 0.00 1 1017.0
20260831134403 80 53 2.6 6.1 0.00 0.00 0.00 1 1017.0
20260831134303 79 55 2.6 4.3 0.00 0.00 0.00 1 1017.0
20260831134205 79 57 2.6 4.3 0.00 0.00 0.00 1 1017.0
20260831134104 79 61 2.6 4.3 0.00 0.00 0.00 1 1017.0
20260831134025 79 60 2.6 4.3 0.00 0.00 0.00 1 1016.9
20260831133903 79 60 2.6 4.3 0.00 0.00 0.00 1 1017.0
20260831133804 79 59 2.6 5.2 0.00 0.00 0.00 1 1016.9
20260831133704 79 59 2.6 5.2 0.00 0.00 0.00 1 1016.9
20260831133603 79 58 2.6 5.2 0.00 0.00 0.00 1 1016.9
20260831133503 79 58 2.6 5.2 0.00 0.00 0.00 1 1016.9
20260831133404 79 58 2.6 5.2 0.00 0.00 0.00 1 1016.9
20260831133304 79 59 2.6 5.2 0.00 0.00 0.00 1 1017.0
20260831133204 79 58 2.6 5.2 0.00 0.00 0.00 1 1016.9
20260831133103 79 57 2.6 5.2 0.00 0.00 0.00 1 1016.9
20260831133003 79 57 2.6 5.2 0.00 0.00 0.00 1 1016.9
20260831132903 79 55 2.6 5.2 0.00 0.00 0.00 1 1016.9
20260831132803 79 53 1.7 5.2 0.00 0.00 0.00 1 1016.9
20260831132703 79 49 2.6 5.2 0.00 0.00 0.00 1 1016.9
20260831132603 79 47 2.6 5.2 0.00 0.00 0.00 1 1016.9
20260831132503 79 47 2.6 5.2 0.00 0.00 0.00 1 1016.8
20260831132404 79 47 2.6 5.2 0.00 0.00 0.00 1 1016.8
20260831132306 79 46 2.6 5.2 0.00 0.00 0.00 1 1016.8
20260831132203 79 45 2.6 5.2 0.00 0.00 0.00 1 1016.8
20260831132103 79 45 2.6 5.2 0.00 0.00 0.00 1 1016.8
20260831132004 79 45 2.6 5.2 0.00 0.00 0.00 1 1016.8
20260831131903 79 45 2.6 5.2 0.00 0.00 0.00 1 1016.8
20260831131825 79 45 2.6 5.2 0.00 0.00 0.00 1 1016.8
20260831131703 79 46 2.6 6.1 0.00 0.00 0.00 1 1016.8
20260831131604 79 49 2.6 6.1 0.00 0.00 0.00 1 1016.8
20260831131503 79 49 2.6 6.1 0.00 0.00 0.00 1 1016.8
20260831131404 79 49 2.6 6.1 0.00 0.00 0.00 1 1016.8
20260831131303 78 51 2.6 6.1 0.00 0.00 0.00 1 1016.7
20260831131204 78 51 2.6 6.1 0.00 0.00 0.00 1 1016.7
20260831131104 78 50 2.6 6.1 0.00 0.00 0.00 1 1016.7
20260831131025 78 49 2.6 6.1 0.00 0.00 0.00 1 1016.7
20260831130903 78 47 2.6 6.1 0.00 0.00 0.00 1 1016.7
20260831130803 78 48 2.6 6.1 0.00 0.00 0.00 1 1016.7
20260831130724 78 48 2.6 5.2 0.00 0.00 0.00 1 1016.7
20260831130624 78 47 2.6 5.2 0.00 0.00 0.00 1 1016.7
20260831130525 78 46 2.6 5.2 0.00 0.00 0.00 1 1016.7
20260831130424 78 45 2.6 5.2 0.00 0.00 0.00 1 1016.6
20260831130304 78 44 2.6 5.2 0.00 0.00 0.00 1 1016.6
20260831130203 78 43 2.6 5.2 0.00 0.00 0.00 1 1016.7
20260831130004 78 46 2.6 4.3 0.00 0.00 0.00 1 1016.7
20260831125925 78 45 2.6 4.3 0.00 0.00 0.00 1 1016.6
20260831125803 78 44 2.6 4.3 0.00 0.00 0.00 1 1016.5
20260831125703 78 41 2.6 4.3 0.00 0.00 0.00 1 1016.5
20260831125603 78 41 2.6 4.3 0.00 0.00 0.00 1 1016.5
20260831125503 78 42 2.6 4.3 0.00 0.00 0.00 1 1016.5
20260831125403 78 42 1.7 4.3 0.00 0.00 0.00 1 1016.5
20260831125306 78 42 1.7 4.3 0.00 0.00 0.00 1 1016.5
20260831125204 78 42 1.7 4.3 0.00 0.00 0.00 1 1016.5
20260831125124 78 43 1.7 4.3 0.00 0.00 0.00 1 1016.5
20260831125004 78 46 1.7 5.2 0.00 0.00 0.00 1 1016.5
20260831124925 78 48 1.7 5.2 0.00 0.00 0.00 1 1016.5
20260831124804 78 53 1.7 5.2 0.00 0.00 0.00 1 1016.5
20260831124724 78 54 1.7 5.2 0.00 0.00 0.00 1 1016.5
20260831124603 78 58 1.7 5.2 0.00 0.00 0.00 1 1016.4
20260831124503 77 59 1.7 5.2 0.00 0.00 0.00 1 1016.4
20260831124403 77 59 1.7 5.2 0.00 0.00 0.00 1 1016.4
20260831124303 77 60 1.7 5.2 0.00 0.00 0.00 1 1016.4
20260831124203 77 60 1.7 5.2 0.00 0.00 0.00 1 1016.3
20260831124103 77 61 1.7 5.2 0.00 0.00 0.00 1 1016.3
20260831124003 77 63 1.7 4.3 0.00 0.00 0.00 1 1016.3
20260831123904 77 64 1.7 4.3 0.00 0.00 0.00 1 1016.3
20260831123803 77 65 1.7 4.3 0.00 0.00 0.00 1 1016.3
20260831123703 77 65 1.7 4.3 0.00 0.00 0.00 1 1016.3
20260831123604 77 66 1.7 4.3 0.00 0.00 0.00 1 1016.3
20260831123503 77 67 1.7 4.3 0.00 0.00 0.00 1 1016.3
20260831123403 77 64 1.7 5.2 0.00 0.00 0.00 1 1016.4
20260831123304 77 62 1.7 5.2 0.00 0.00 0.00 1 1016.3
20260831123204 77 59 2.6 6.1 0.00 0.00 0.00 1 1016.3
20260831123103 77 58 2.6 6.1 0.00 0.00 0.00 1 1016.3
20260831123004 77 58 2.6 6.1 0.00 0.00 0.00 1 1016.3
20260831122903 77 58 2.6 6.1 0.00 0.00 0.00 1 1016.4
20260831122825 77 58 2.6 6.1 0.00 0.00 0.00 1 1016.4
20260831122703 77 57 2.6 6.1 0.00 0.00 0.00 1 1016.4
20260831122603 77 56 2.6 6.1 0.00 0.00 0.00 1 1016.4
20260831122524 77 56 2.6 6.1 0.00 0.00 0.00 1 1016.4
20260831122425 77 55 2.6 6.1 0.00 0.00 0.00 1 1016.4
20260831122305 77 58 2.6 6.1 0.00 0.00 0.00 1 1016.4
20260831122204 77 60 2.6 5.2 0.00 0.00 0.00 1 1016.3
20260831122104 77 59 1.7 5.2 0.00 0.00 0.00 1 1016.4
20260831122004 77 57 2.6 5.2 0.00 0.00 0.00 1 1016.4
20260831121903 77 55 2.6 5.2 0.00 0.00 0.00 1 1016.4
20260831121803 77 53 2.6 5.2 0.00 0.00 0.00 1 1016.4
20260831121704 77 52 2.6 5.2 0.00 0.00 0.00 1 1016.4
20260831121604 77 51 2.6 5.2 0.00 0.00 0.00 1 1016.3
20260831121504 77 49 2.6 5.2 0.00 0.00 0.00 1 1016.3
20260831121404 77 47 1.7 5.2 0.00 0.00 0.00 1 1016.3
20260831121303 77 44 1.7 5.2 0.00 0.00 0.00 1 1016.3
20260831121203 77 45 2.6 5.2 0.00 0.00 0.00 1 1016.3
20260831121103 77 46 2.6 5.2 0.00 0.00 0.00 1 1016.2
20260831121003 77 47 2.6 5.2 0.00 0.00 0.00 1 1016.2
20260831120903 77 49 2.6 5.2 0.00 0.00 0.00 1 1016.2
20260831120825 77 50 2.6 5.2 0.00 0.00 0.00 1 1016.2
20260831120703 77 51 2.6 5.2 0.00 0.00 0.00 1 1016.3
20260831120604 77 52 2.6 5.2 0.00 0.00 0.00 1 1016.2
20260831120504 77 52 2.6 5.2 0.00 0.00 0.00 1 1016.2
20260831120425 77 52 3.5 5.2 0.00 0.00 0.00 1 1016.2
20260831120303 77 52 3.5 7.0 0.00 0.00 0.00 1 1016.2
20260831120206 77 52 3.5 7.0 0.00 0.00 0.00 1 1016.2
20260831120103 77 51 3.5 7.0 0.00 0.00 0.00 1 1016.2
20260831120004 77 50 3.5 7.0 0.00 0.00 0.00 1 1016.2
20260831115903 77 49 3.5 7.0 0.00 0.00 0.00 1 1016.2
20260831115804 77 49 3.5 7.0 0.00 0.00 0.00 1 1016.2
20260831115725 77 49 3.5 7.0 0.00 0.00 0.00 1 1016.2
20260831115624 77 48 3.5 7.0 0.00 0.00 0.00 1 1016.2
20260831115504 77 49 3.5 7.0 0.00 0.00 0.00 1 1016.2
20260831115403 77 51 3.5 7.0 0.00 0.00 0.00 1 1016.2
20260831115306 77 51 3.5 7.0 0.00 0.00 0.00 1 1016.2
20260831115204 77 51 3.5 7.0 0.00 0.00 0.00 1 1016.2
20260831115103 77 52 3.5 7.0 0.00 0.00 0.00 1 1016.2
20260831115024 77 51 3.5 7.8 0.00 0.00 0.00 1 1016.2
20260831114903 77 51 3.5 7.8 0.00 0.00 0.00 1 1016.2
20260831114803 77 50 3.5 7.8 0.00 0.00 0.00 1 1016.2
20260831114703 77 49 3.5 7.8 0.00 0.00 0.00 1 1016.2
20260831114603 77 48 4.3 7.8 0.00 0.00 0.00 1 1016.2
20260831114503 77 48 4.3 7.8 0.00 0.00 0.00 1 1016.2
20260831114403 77 48 4.3 7.8 0.00 0.00 0.00 1 1016.3
20260831114303 77 47 4.3 7.8 0.00 0.00 0.00 1 1016.2
20260831114224 77 48 4.3 7.8 0.00 0.00 0.00 1 1016.3
20260831114124 77 48 4.3 7.8 0.00 0.00 0.00 1 1016.2
20260831114003 77 50 5.2 7.8 0.00 0.00 0.00 1 1016.2
20260831113924 77 49 5.2 7.8 0.00 0.00 0.00 1 1016.2
20260831113803 77 52 4.3 7.8 0.00 0.00 0.00 1 1016.2
20260831113704 77 52 4.3 7.8 0.00 0.00 0.00 1 1016.2
20260831113625 77 53 4.3 7.8 0.00 0.00 0.00 1 1016.2
20260831113503 77 56 4.3 7.8 0.00 0.00 0.00 1 1016.2
20260831113403 77 56 4.3 7.8 0.00 0.00 0.00 1 1016.3
20260831113304 77 58 4.3 7.8 0.00 0.00 0.00 1 1016.2
20260831113204 77 59 4.3 7.8 0.00 0.00 0.00 1 1016.2
20260831113103 77 59 4.3 7.8 0.00 0.00 0.00 1 1016.2
20260831113025 77 61 3.5 7.8 0.00 0.00 0.00 1 1016.3
20260831112904 77 61 3.5 7.0 0.00 0.00 0.00 1 1016.3
20260831112803 77 59 3.5 7.0 0.00 0.00 0.00 1 1016.3
20260831112703 77 59 3.5 7.0 0.00 0.00 0.00 1 1016.2
20260831112603 77 57 3.5 7.0 0.00 0.00 0.00 1 1016.2
20260831112504 77 51 3.5 7.0 0.00 0.00 0.00 1 1016.2
20260831112404 77 50 3.5 7.0 0.00 0.00 0.00 1 1016.3
20260831112307 77 48 3.5 7.0 0.00 0.00 0.00 1 1016.3
20260831112203 77 45 2.6 5.2 0.00 0.00 0.00 1 1016.3
20260831112104 77 45 2.6 5.2 0.00 0.00 0.00 1 1016.3
20260831112003 77 44 2.6 5.2 0.00 0.00 0.00 1 1016.3
20260831111904 77 44 2.6 5.2 0.00 0.00 0.00 1 1016.3
20260831111803 77 46 2.6 5.2 0.00 0.00 0.00 1 1016.2
20260831111704 77 45 2.6 6.1 0.00 0.00 0.00 1 1016.3
20260831111603 77 46 2.6 6.1 0.00 0.00 0.00 1 1016.3
20260831111503 77 46 2.6 6.1 0.00 0.00 0.00 1 1016.3
20260831111424 77 43 2.6 6.1 0.00 0.00 0.00 1 1016.2
20260831111303 77 36 2.6 6.1 0.00 0.00 0.00 1 1016.2
20260831111203 77 35 2.6 6.1 0.00 0.00 0.00 1 1016.1
20260831111104 77 33 2.6 6.1 0.00 0.00 0.00 1 1016.1
20260831111003 77 29 2.6 6.1 0.00 0.00 0.00 1 1016.1
20260831110903 77 26 2.6 6.1 0.00 0.00 0.00 1 1016.1
20260831110803 77 26 2.6 6.1 0.00 0.00 0.00 1 1016.2
20260831110703 77 26 2.6 6.1 0.00 0.00 0.00 1 1016.1
20260831110603 77 27 2.6 6.1 0.00 0.00 0.00 1 1016.1
20260831110503 77 31 2.6 6.1 0.00 0.00 0.00 1 1016.1
20260831110404 77 40 2.6 6.1 0.00 0.00 0.00 1 1016.1
20260831110303 77 45 2.6 6.1 0.00 0.00 0.00 1 1016.1
20260831110203 77 47 2.6 7.0 0.00 0.00 0.00 1 1016.1
20260831110103 77 48 2.6 7.0 0.00 0.00 0.00 1 1016.1
20260831110003 77 50 2.6 7.0 0.00 0.00 0.00 1 1016.1
20260831105904 77 51 2.6 7.0 0.00 0.00 0.00 1 1016.1
20260831105824 77 51 1.7 7.0 0.00 0.00 0.00 1 1016.1
20260831105703 77 50 2.6 7.0 0.00 0.00 0.00 1 1016.1
20260831105603 77 49 2.6 7.0 0.00 0.00 0.00 1 1016.1
20260831105503 77 48 2.6 7.0 0.00 0.00 0.00 1 1016.1
20260831105424 77 48 1.7 7.0 0.00 0.00 0.00 1 1016.1
20260831105306 78 44 2.6 7.0 0.00 0.00 0.00 1 1016.1
20260831105203 78 42 1.7 5.2 0.00 0.00 0.00 1 1016.1
20260831105125 78 42 2.6 5.2 0.00 0.00 0.00 1 1016.1
20260831105024 78 44 2.6 5.2 0.00 0.00 0.00 1 1016.1
20260831104903 78 46 2.6 5.2 0.00 0.00 0.00 1 1016.1
20260831104803 78 48 2.6 5.2 0.00 0.00 0.00 1 1016.1
20260831104703 78 49 2.6 4.3 0.00 0.00 0.00 1 1016.1
20260831104603 78 51 2.6 4.3 0.00 0.00 0.00 1 1016.1
20260831104504 78 53 2.6 4.3 0.00 0.00 0.00 1 1016.1
20260831104403 78 54 2.6 4.3 0.00 0.00 0.00 1 1016.1
20260831104303 78 57 2.6 4.3 0.00 0.00 0.00 1 1016.1
20260831104203 78 59 2.6 4.3 0.00 0.00 0.00 1 1016.1
20260831104124 78 60 2.6 3.5 0.00 0.00 0.00 1 1016.1
20260831104003 78 60 2.6 4.3 0.00 0.00 0.00 1 1016.2
20260831103903 78 59 2.6 5.2 0.00 0.00 0.00 1 1016.1
20260831103803 78 57 2.6 5.2 0.00 0.00 0.00 1 1016.1
20260831103724 78 56 2.6 5.2 0.00 0.00 0.00 1 1016.2
20260831103604 78 54 2.6 5.2 0.00 0.00 0.00 1 1016.1
20260831103503 78 51 2.6 7.8 0.00 0.00 0.00 1 1016.2
20260831103404 78 51 2.6 7.8 0.00 0.00 0.00 1 1016.1
20260831103303 78 51 2.6 7.8 0.00 0.00 0.00 1 1016.1
20260831103204 78 50 3.5 7.8 0.00 0.00 0.00 1 1016.1
20260831103124 78 48 3.5 7.8 0.00 0.00 0.00 1 1016.1
20260831103025 78 47 3.5 7.8 0.00 0.00 0.00 1 1016.1
20260831102925 78 46 3.5 7.8 0.00 0.00 0.00 1 1016.2
20260831102803 78 45 3.5 7.8 0.00 0.00 0.00 1 1016.1
20260831102704 78 45 3.5 7.8 0.00 0.00 0.00 1 1016.1
20260831102603 78 45 3.5 7.8 0.00 0.00 0.00 1 1016.1
20260831102503 78 45 3.5 7.8 0.00 0.00 0.00 1 1016.2
20260831102403 78 43 3.5 7.8 0.00 0.00 0.00 1 1016.2
20260831102306 78 43 3.5 7.8 0.00 0.00 0.00 1 1016.1
20260831102224 78 43 3.5 7.8 0.00 0.00 0.00 1 1016.1
20260831102103 78 44 3.5 7.8 0.00 0.00 0.00 1 1016.1
20260831102003 78 43 3.5 8.7 0.00 0.00 0.00 1 1016.1
20260831101924 78 43 3.5 8.7 0.00 0.00 0.00 1 1016.1
20260831101804 78 43 3.5 8.7 0.00 0.00 0.00 1 1016.1
20260831101703 78 43 3.5 8.7 0.00 0.00 0.00 1 1016.1
20260831101603 78 44 3.5 8.7 0.00 0.00 0.00 1 1016.1
20260831101503 78 45 4.3 8.7 0.00 0.00 0.00 1 1016.2
20260831101403 78 46 4.3 8.7 0.00 0.00 0.00 1 1016.2
20260831101324 78 46 4.3 8.7 0.00 0.00 0.00 1 1016.2
20260831101203 78 47 3.5 8.7 0.00 0.00 0.00 1 1016.2
20260831101103 78 47 3.5 8.7 0.00 0.00 0.00 1 1016.2
20260831101003 78 48 3.5 7.8 0.00 0.00 0.00 1 1016.2
20260831100903 78 48 3.5 7.8 0.00 0.00 0.00 1 1016.2
20260831100803 78 48 3.5 7.8 0.00 0.00 0.00 1 1016.2
20260831100704 78 47 3.5 8.7 0.00 0.00 0.00 1 1016.2
20260831100604 78 46 4.3 8.7 0.00 0.00 0.00 1 1016.2
20260831100504 78 45 4.3 8.7 0.00 0.00 0.00 1 1016.2
20260831100404 78 44 3.5 8.7 0.00 0.00 0.00 1 1016.2
20260831100303 78 43 3.5 8.7 0.00 0.00 0.00 1 1016.2
20260831100203 78 42 4.3 8.7 0.00 0.00 0.00 1 1016.2
20260831100103 78 41 3.5 8.7 0.00 0.00 0.00 1 1016.2
20260831100004 78 41 4.3 8.7 0.00 0.00 0.00 1 1016.3
20260831095925 78 41 3.5 8.7 0.00 0.00 0.00 1 1016.3
20260831095803 78 42 3.5 8.7 0.00 0.00 0.00 1 1016.3
20260831095703 78 43 2.6 8.7 0.00 0.00 0.00 1 1016.3
20260831095603 78 45 2.6 6.1 0.00 0.00 0.00 1 1016.3
20260831095503 78 46 2.6 6.1 0.00 0.00 0.00 1 1016.3
20260831095403 78 48 2.6 6.1 0.00 0.00 0.00 1 1016.3
20260831095306 78 49 2.6 6.1 0.00 0.00 0.00 1 1016.3
20260831095203 78 49 2.6 6.1 0.00 0.00 0.00 1 1016.3
20260831095103 78 49 2.6 6.1 0.00 0.00 0.00 1 1016.3
20260831095004 78 50 2.6 6.1 0.00 0.00 0.00 1 1016.3
20260831094903 78 50 2.6 5.2 0.00 0.00 0.00 1 1016.3
20260831094803 78 50 2.6 5.2 0.00 0.00 0.00 1 1016.2
20260831094703 78 50 2.6 5.2 0.00 0.00 0.00 1 1016.2
20260831094624 78 49 2.6 5.2 0.00 0.00 0.00 1 1016.2
20260831094503 78 49 2.6 5.2 0.00 0.00 0.00 1 1016.2
20260831094403 78 48 1.7 5.2 0.00 0.00 0.00 1 1016.2
20260831094303 78 49 1.7 5.2 0.00 0.00 0.00 1 1016.2
20260831094204 78 51 1.7 4.3 0.00 0.00 0.00 1 1016.2
20260831094103 78 51 1.7 5.2 0.00 0.00 0.00 1 1016.2
20260831094003 78 52 1.7 5.2 0.00 0.00 0.00 1 1016.2
20260831093903 78 52 1.7 5.2 0.00 0.00 0.00 1 1016.2
20260831093803 78 52 1.7 5.2 0.00 0.00 0.00 1 1016.2
20260831093725 78 52 1.7 5.2 0.00 0.00 0.00 1 1016.2
20260831093603 78 52 2.6 5.2 0.00 0.00 0.00 1 1016.2
20260831093504 78 51 2.6 5.2 0.00 0.00 0.00 1 1016.2
20260831093403 78 50 2.6 5.2 0.00 0.00 0.00 1 1016.2
20260831093303 78 49 2.6 5.2 0.00 0.00 0.00 1 1016.1
20260831093203 78 49 2.6 5.2 0.00 0.00 0.00 1 1016.2
20260831093103 78 48 2.6 5.2 0.00 0.00 0.00 1 1016.1
20260831093024 78 47 2.6 5.2 0.00 0.00 0.00 1 1016.1
20260831092903 78 45 2.6 5.2 0.00 0.00 0.00 1 1016.1
20260831092803 78 43 2.6 5.2 0.00 0.00 0.00 1 1016.1
20260831092724 78 43 2.6 5.2 0.00 0.00 0.00 1 1016.0
20260831092604 78 42 2.6 5.2 0.00 0.00 0.00 1 1016.0
20260831092503 78 41 2.6 5.2 0.00 0.00 0.00 1 1016.0
20260831092403 78 41 2.6 5.2 0.00 0.00 0.00 1 1016.0
20260831092306 78 41 2.6 5.2 0.00 0.00 0.00 1 1016.0
20260831092203 78 41 1.7 5.2 0.00 0.00 0.00 1 1016.0
20260831092124 78 41 1.7 5.2 0.00 0.00 0.00 1 1016.0
20260831092004 78 41 1.7 5.2 0.00 0.00 0.00 1 1015.9
20260831091924 78 41 1.7 5.2 0.00 0.00 0.00 1 1015.9
20260831091803 78 41 1.7 5.2 0.00 0.00 0.00 1 1015.9
20260831091703 78 42 1.7 5.2 0.00 0.00 0.00 1 1015.9
20260831091624 78 42 1.7 5.2 0.00 0.00 0.00 1 1015.9
20260831091503 78 43 1.7 5.2 0.00 0.00 0.00 1 1015.9
20260831091424 78 44 1.7 5.2 0.00 0.00 0.00 1 1015.9
20260831091324 78 45 1.7 5.2 0.00 0.00 0.00 1 1015.9
20260831091224 78 46 1.7 5.2 0.00 0.00 0.00 1 1015.9
20260831091103 78 45 1.7 5.2 0.00 0.00 0.00 1 1015.9
20260831091004 78 46 1.7 5.2 0.00 0.00 0.00 1 1015.9
20260831090903 78 46 1.7 5.2 0.00 0.00 0.00 1 1015.9
20260831090824 78 46 2.6 5.2 0.00 0.00 0.00 1 1015.9
20260831090704 78 49 2.6 5.2 0.00 0.00 0.00 1 1015.9
20260831090604 78 47 2.6 6.1 0.00 0.00 0.00 1 1015.8
20260831090503 78 48 2.6 6.1 0.00 0.00 0.00 1 1015.9
20260831090403 78 49 3.5 6.1 0.00 0.00 0.00 1 1015.9
20260831090303 78 49 2.6 6.1 0.00 0.00 0.00 1 1015.9
20260831090203 78 49 3.5 6.1 0.00 0.00 0.00 1 1015.9
20260831090124 78 49 3.5 6.1 0.00 0.00 0.00 1 1015.9
20260831090004 78 50 3.5 6.1 0.00 0.00 0.00 1 1015.9
20260831085903 78 50 3.5 6.1 0.00 0.00 0.00 1 1015.9
20260831085803 78 50 2.6 6.1 0.00 0.00 0.00 1 1015.9
20260831085703 78 48 2.6 6.1 0.00 0.00 0.00 1 1015.9
20260831085603 78 51 2.6 6.1 0.00 0.00 0.00 1 1015.9
20260831085503 78 51 2.6 6.1 0.00 0.00 0.00 1 1015.9
20260831085424 78 50 2.6 6.1 0.00 0.00 0.00 1 1015.9
20260831085306 78 49 2.6 6.1 0.00 0.00 0.00 1 1015.9
20260831085224 78 49 2.6 6.1 0.00 0.00 0.00 1 1016.0
20260831085125 78 48 2.6 6.1 0.00 0.00 0.00 1 1016.0
20260831085003 78 47 2.6 7.0 0.00 0.00 0.00 1 1016.0
20260831084903 78 47 2.6 7.0 0.00 0.00 0.00 1 1016.0
20260831084803 78 47 2.6 7.0 0.00 0.00 0.00 1 1016.1
20260831084703 78 47 2.6 7.0 0.00 0.00 0.00 1 1016.1
20260831084605 78 47 3.5 7.0 0.00 0.00 0.00 1 1016.1
20260831084503 78 47 3.5 7.0 0.00 0.00 0.00 1 1016.0
20260831084403 78 45 3.5 7.0 0.00 0.00 0.00 1 1016.0
20260831084303 78 44 3.5 7.0 0.00 0.00 0.00 1 1016.0
20260831084203 78 45 3.5 7.8 0.00 0.00 0.00 1 1016.0
20260831084103 78 45 3.5 7.8 0.00 0.00 0.00 1 1016.0
20260831084003 78 46 3.5 7.8 0.00 0.00 0.00 1 1016.0
20260831083903 78 46 3.5 7.8 0.00 0.00 0.00 1 1016.0
20260831083803 78 45 3.5 7.8 0.00 0.00 0.00 1 1016.0
20260831083704 78 46 3.5 7.8 0.00 0.00 0.00 1 1016.0
20260831083603 78 45 3.5 7.8 0.00 0.00 0.00 1 1015.9
20260831083524 78 45 3.5 7.8 0.00 0.00 0.00 1 1016.0
20260831083424 78 46 3.5 7.8 0.00 0.00 0.00 1 1015.9
20260831083303 79 48 3.5 7.8 0.00 0.00 0.00 1 1016.0
20260831083204 79 47 3.5 7.0 0.00 0.00 0.00 1 1016.0
20260831083104 79 47 3.5 7.0 0.00 0.00 0.00 1 1016.0
20260831083006 79 45 3.5 7.8 0.00 0.00 0.00 1 1015.9
20260831082903 79 45 3.5 7.8 0.00 0.00 0.00 1 1015.9
20260831082824 79 45 3.5 7.8 0.00 0.00 0.00 1 1015.9
20260831082704 79 44 3.5 7.8 0.00 0.00 0.00 1 1016.0
20260831082603 79 44 3.5 7.8 0.00 0.00 0.00 1 1016.0
20260831082503 79 43 3.5 7.8 0.00 0.00 0.00 1 1016.0
20260831082424 79 42 3.5 7.8 0.00 0.00 0.00 1 1016.0
20260831082306 79 44 3.5 7.8 0.00 0.00 0.00 1 1016.0
20260831082203 79 44 3.5 7.8 0.00 0.00 0.00 1 1016.0
20260831082103 79 41 3.5 7.8 0.00 0.00 0.00 1 1016.1
20260831082024 79 39 3.5 7.0 0.00 0.00 0.00 1 1016.1
20260831081903 79 38 3.5 7.0 0.00 0.00 0.00 1 1016.1
20260831081803 79 38 3.5 6.1 0.00 0.00 0.00 1 1016.1
20260831081703 79 34 3.5 6.1 0.00 0.00 0.00 1 1016.1
20260831081603 79 34 3.5 6.1 0.00 0.00 0.00 1 1016.1
20260831081503 79 33 2.6 6.1 0.00 0.00 0.00 1 1016.1
20260831081403 79 32 2.6 6.1 0.00 0.00 0.00 1 1016.1
20260831081303 79 28 2.6 6.1 0.00 0.00 0.00 1 1016.1
20260831081224 79 27 2.6 6.1 0.00 0.00 0.00 1 1016.1
20260831081103 79 27 2.6 6.1 0.00 0.00 0.00 1 1016.1
20260831081024 79 31 2.6 7.0 0.00 0.00 0.00 1 1016.1
20260831080904 79 31 2.6 7.0 0.00 0.00 0.00 1 1016.1
20260831080803 79 32 2.6 7.0 0.00 0.00 0.00 1 1016.1
20260831080703 79 35 2.6 7.0 0.00 0.00 0.00 1 1016.1
20260831080603 79 35 2.6 7.8 0.00 0.00 0.00 1 1016.0
20260831080503 79 30 2.6 7.8 0.00 0.00 0.00 1 1016.0
20260831080403 79 25 2.6 7.8 0.00 0.00 0.00 1 1016.0
20260831080303 79 24 2.6 7.8 0.00 0.00 0.00 1 1016.0
20260831080203 79 23 3.5 7.8 0.00 0.00 0.00 1 1016.0
20260831080004 80 24 2.6 7.8 0.00 0.00 0.00 1 1016.0
20260831075903 80 24 2.6 7.8 0.00 0.00 0.00 1 1016.0
20260831075824 80 23 2.6 7.8 0.00 0.00 0.00 1 1016.0
20260831075724 80 23 2.6 7.8 0.00 0.00 0.00 1 1016.0
20260831075624 80 19 2.6 7.8 0.00 0.00 0.00 1 1016.0
20260831075503 80 17 2.6 7.8 0.00 0.00 0.00 1 1016.0
20260831075404 80 23 3.5 7.8 0.00 0.00 0.00 1 1016.0
20260831075306 80 20 2.6 7.8 0.00 0.00 0.00 1 1016.1
20260831075203 80 20 2.6 7.0 0.00 0.00 0.00 1 1016.0
20260831075124 80 22 2.6 7.0 0.00 0.00 0.00 1 1016.0
20260831075003 80 22 2.6 8.7 0.00 0.00 0.00 1 1016.0
20260831074903 80 23 2.6 8.7 0.00 0.00 0.00 1 1016.0
20260831074825 80 22 2.6 8.7 0.00 0.00 0.00 1 1016.0
20260831074724 80 20 2.6 8.7 0.00 0.00 0.00 1 1016.1
20260831074603 80 26 2.6 8.7 0.00 0.00 0.00 1 1016.1
20260831074524 80 29 2.6 8.7 0.00 0.00 0.00 1 1016.0
20260831074403 80 30 2.6 8.7 0.00 0.00 0.00 1 1016.1
20260831074324 80 32 2.6 8.7 0.00 0.00 0.00 1 1016.1
20260831074224 80 35 2.6 8.7 0.00 0.00 0.00 1 1016.1
20260831074103 80 35 2.6 7.0 0.00 0.00 0.00 1 1016.1
20260831074004 80 35 2.6 7.0 0.00 0.00 0.00 1 1016.1
20260831073903 80 34 2.6 7.0 0.00 0.00 0.00 1 1016.1
20260831073803 80 35 2.6 5.2 0.00 0.00 0.00 1 1016.1
20260831073703 80 36 2.6 5.2 0.00 0.00 0.00 1 1016.1
20260831073603 80 37 2.6 5.2 0.00 0.00 0.00 1 1016.1
20260831073504 80 40 1.7 5.2 0.00 0.00 0.00 1 1016.1
20260831073403 80 41 1.7 5.2 0.00 0.00 0.00 1 1016.1
20260831073303 80 42 1.7 5.2 0.00 0.00 0.00 1 1016.1
20260831073224 80 42 1.7 5.2 0.00 0.00 0.00 1 1016.1
20260831073103 80 42 1.7 5.2 0.00 0.00 0.00 1 1016.1
20260831073004 80 43 1.7 5.2 0.00 0.00 0.00 1 1016.1
20260831072903 80 43 1.7 4.3 0.00 0.00 0.00 1 1016.1
20260831072803 80 42 2.6 4.3 0.00 0.00 0.00 1 1016.1
20260831072703 80 41 2.6 4.3 0.00 0.00 0.00 1 1016.1
20260831072603 80 40 2.6 4.3 0.00 0.00 0.00 1 1016.1
20260831072524 80 39 2.6 4.3 0.00 0.00 0.00 1 1016.1
20260831072403 80 38 2.6 5.2 0.00 0.00 0.00 1 1016.1
20260831072306 80 37 2.6 5.2 0.00 0.00 0.00 1 1016.1
20260831072203 81 37 2.6 5.2 0.00 0.00 0.00 1 1016.1
20260831072103 81 37 2.6 5.2 0.00 0.00 0.00 1 1016.1
20260831072024 81 36 1.7 5.2 0.00 0.00 0.00 1 1016.1
20260831071904 81 36 1.7 5.2 0.00 0.00 0.00 1 1016.1
20260831071803 81 37 1.7 5.2 0.00 0.00 0.00 1 1016.1
20260831071703 81 38 1.7 5.2 0.00 0.00 0.00 1 1016.0
20260831071603 81 39 2.6 6.1 0.00 0.00 0.00 1 1016.0
20260831071503 81 40 2.6 6.1 0.00 0.00 0.00 1 1016.0
20260831071424 81 40 2.6 6.1 0.00 0.00 0.00 1 1016.0
20260831071324 81 39 2.6 6.1 0.00 0.00 0.00 1 1016.1
20260831071203 81 38 2.6 6.1 0.00 0.00 0.00 1 1016.0
20260831071103 81 37 2.6 6.1 0.00 0.00 0.00 1 1016.0
20260831071003 81 37 2.6 6.1 0.00 0.00 0.00 1 1016.0
20260831070903 81 35 2.6 6.1 0.00 0.00 0.00 1 1016.0
20260831070803 81 34 2.6 6.1 0.00 0.00 0.00 1 1016.0
20260831070703 81 32 2.6 6.1 0.00 0.00 0.00 1 1016.0
20260831070605 81 31 1.7 6.1 0.00 0.00 0.00 1 1016.0
20260831070503 81 30 1.7 6.1 0.00 0.00 0.00 1 1016.0
20260831070424 81 30 1.7 6.1 0.00 0.00 0.00 1 1016.1
20260831070324 81 29 1.7 6.1 0.00 0.00 0.00 1 1016.0
20260831070203 81 28 1.7 6.1 0.00 0.00 0.00 1 1016.0
20260831070124 81 27 1.7 4.3 0.00 0.00 0.00 1 1016.1
20260831070003 81 27 1.7 5.2 0.00 0.00 0.00 1 1016.1
20260831065903 81 28 1.7 5.2 0.00 0.00 0.00 1 1016.1
20260831065803 81 28 1.7 5.2 0.00 0.00 0.00 1 1016.1
20260831065703 82 28 1.7 5.2 0.00 0.00 0.00 1 1016.1
20260831065624 82 29 1.7 5.2 0.00 0.00 0.00 1 1016.1
20260831065503 82 29 1.7 5.2 0.00 0.00 0.00 1 1016.1
20260831065404 82 29 1.7 5.2 0.00 0.00 0.00 1 1016.1
20260831065324 82 29 1.7 5.2 0.00 0.00 0.00 1 1016.1
20260831065204 82 30 1.7 5.2 0.00 0.00 0.00 1 1016.2
20260831065124 82 30 1.7 5.2 0.00 0.00 0.00 1 1016.2
20260831065003 82 31 0.9 5.2 0.00 0.00 0.00 1 1016.2
20260831064924 82 31 0.9 4.3 0.00 0.00 0.00 1 1016.1
20260831064803 82 31 0.9 3.5 0.00 0.00 0.00 1 1016.2
20260831064703 82 31 0.9 3.5 0.00 0.00 0.00 1 1016.1
20260831064603 82 30 0.9 4.3 0.00 0.00 0.00 1 1016.2
20260831064503 82 30 0.9 4.3 0.00 0.00 0.00 1 1016.2
20260831064403 82 30 0.9 4.3 0.00 0.00 0.00 1 1016.2
20260831064303 82 30 0.9 4.3 0.00 0.00 0.00 1 1016.1
20260831064203 82 30 0.9 4.3 0.00 0.00 0.00 1 1016.2
20260831064103 82 30 1.7 4.3 0.00 0.00 0.00 1 1016.2
20260831064025 82 30 1.7 4.3 0.00 0.00 0.00 1 1016.2
20260831063903 82 29 1.7 4.3 0.00 0.00 0.00 1 1016.2
20260831063824 82 28 1.7 4.3 0.00 0.00 0.00 1 1016.3
20260831063703 82 26 1.7 4.3 0.00 0.00 0.00 1 1016.3
20260831063603 82 23 1.7 6.1 0.00 0.00 0.00 1 1016.3
20260831063525 82 23 1.7 6.1 0.00 0.00 0.00 1 1016.2
20260831063403 82 22 1.7 6.1 0.00 0.00 0.00 1 1016.2
20260831063303 82 22 1.7 6.1 0.00 0.00 0.00 1 1016.3
20260831063203 82 21 1.7 6.1 0.00 0.00 0.00 1 1016.3
20260831063104 82 19 1.7 6.1 0.00 0.00 0.00 1 1016.3
20260831063024 82 18 1.7 6.1 0.00 0.00 0.00 1 1016.2
20260831062903 83 17 2.6 6.1 0.00 0.00 0.00 1 1016.2
20260831062803 83 19 2.6 6.1 0.00 0.00 0.00 1 1016.3
20260831062703 83 23 2.6 6.1 0.00 0.00 0.00 1 1016.2
20260831062603 83 24 2.6 5.2 0.00 0.00 0.00 1 1016.2
20260831062503 83 24 2.6 5.2 0.00 0.00 0.00 1 1016.2
20260831062403 83 24 2.6 5.2 0.00 0.00 0.00 1 1016.2
20260831062305 83 24 2.6 5.2 0.00 0.00 0.00 1 1016.2
20260831062203 83 25 2.6 7.0 0.00 0.00 0.00 1 1016.2
20260831062103 83 28 2.6 7.0 0.00 0.00 0.00 1 1016.2
20260831062003 83 30 2.6 7.0 0.00 0.00 0.00 1 1016.2
20260831061903 83 32 2.6 7.0 0.00 0.00 0.00 1 1016.2
20260831061824 83 32 2.6 7.0 0.00 0.00 0.00 1 1016.2
20260831061703 83 31 2.6 7.0 0.00 0.00 0.00 1 1016.2
20260831061603 83 33 2.6 7.0 0.00 0.00 0.00 1 1016.2
20260831061504 83 32 2.6 7.0 0.00 0.00 0.00 1 1016.2
20260831061403 83 33 2.6 7.0 0.00 0.00 0.00 1 1016.2
20260831061303 83 33 2.6 7.0 0.00 0.00 0.00 1 1016.2
20260831061204 83 32 2.6 7.0 0.00 0.00 0.00 1 1016.2
20260831061103 83 31 2.6 7.0 0.00 0.00 0.00 1 1016.2
20260831061003 83 33 2.6 7.0 0.00 0.00 0.00 1 1016.1
20260831060924 83 34 2.6 7.0 0.00 0.00 0.00 1 1016.2
20260831060803 83 35 2.6 7.0 0.00 0.00 0.00 1 1016.2
20260831060703 83 32 2.6 7.0 0.00 0.00 0.00 1 1016.1
20260831060603 83 30 2.6 7.0 0.00 0.00 0.00 1 1016.1
20260831060503 83 31 2.6 7.0 0.00 0.00 0.00 1 1016.1